Observation data for Amarillo 15 North Northwest on 11/09/2019      Previous  Date       Current Mesonet Observations  Soil Data  Daily Summary Page  Observations in Plain Language
KAM3 090600Z 24005KT 04/03 A3026 RMK A01 T00350034  RH  100%=      5-min Rain = 0
KAM3 090601Z 23005KT 04/04 A3026 RMK A01 T00360036  RH  100%=      5-min Rain = 0
KAM3 090602Z 23005KT 04/04 A3026 RMK A01 T00360036  RH  100%=      5-min Rain = 0
KAM3 090603Z 23005KT 04/04 A3026 RMK A01 T00370037  RH  100%=      5-min Rain = 0
KAM3 090604Z 23005KT 04/04 A3026 RMK A01 T00370037  RH  100%=      5-min Rain = 0
KAM3 090605Z 23005KT 04/04 A3026 RMK A01 T00370037  RH  100%=      5-min Rain = 0
KAM3 090606Z 23005KT 04/04 A3026 RMK A01 T00370037  RH  100%=      5-min Rain = 0
KAM3 090607Z 23005KT 04/04 A3026 RMK A01 T00370037  RH  100%=      5-min Rain = 0
KAM3 090608Z 23006KT 04/04 A3026 RMK A01 T00360036  RH  100%=      5-min Rain = 0
KAM3 090609Z 23006KT 04/04 A3026 RMK A01 T00370037  RH  100%=      5-min Rain = 0
KAM3 090610Z 23006KT 04/04 A3026 RMK A01 T00370037  RH  100%=      5-min Rain = 0
KAM3 090611Z 24006KT 04/04 A3026 RMK A01 T00370037  RH  100%=      5-min Rain = 0
KAM3 090612Z 24005KT 04/04 A3026 RMK A01 T00370037  RH  100%=      5-min Rain = 0
KAM3 090613Z 24006KT 04/04 A3026 RMK A01 T00370037  RH  100%=      5-min Rain = 0
KAM3 090614Z 24006KT 04/04 A3026 RMK A01 T00370037  RH  100%=      5-min Rain = 0
KAM3 090615Z 24006KT 04/04 A3026 RMK A01 T00370037  RH  100%=      5-min Rain = 0
KAM3 090616Z 24006KT 04/04 A3026 RMK A01 T00370036  RH  100%=      5-min Rain = 0
KAM3 090617Z 24006KT 04/04 A3026 RMK A01 T00370037  RH  100%=      5-min Rain = 0
KAM3 090618Z 24006KT 04/04 A3026 RMK A01 T00370037  RH  100%=      5-min Rain = 0
KAM3 090619Z 25006KT 04/04 A3026 RMK A01 T00370037  RH  100%=      5-min Rain = 0
KAM3 090620Z 25006KT 04/04 A3026 RMK A01 T00370036  RH  100%=      5-min Rain = 0
KAM3 090621Z 24005KT 04/04 A3026 RMK A01 T00370037  RH  100%=      5-min Rain = 0
KAM3 090622Z 25006KT 04/04 A3026 RMK A01 T00370037  RH  100%=      5-min Rain = 0
KAM3 090623Z 24006KT 04/04 A3026 RMK A01 T00380038  RH  100%=      5-min Rain = 0
KAM3 090624Z 24006KT 04/04 A3026 RMK A01 T00380038  RH  100%=      5-min Rain = 0
KAM3 090625Z 24006KT 04/04 A3026 RMK A01 T00380038  RH  100%=      5-min Rain = 0
KAM3 090626Z 24006KT 04/04 A3026 RMK A01 T00390039  RH  100%=      5-min Rain = 0
KAM3 090627Z 24006KT 04/04 A3026 RMK A01 T00390039  RH  100%=      5-min Rain = 0
KAM3 090628Z 25006KT 04/04 A3026 RMK A01 T00390039  RH  100%=      5-min Rain = 0
KAM3 090629Z 25006KT 04/04 A3026 RMK A01 T00380038  RH  100%=      5-min Rain = 0
KAM3 090630Z 25005KT 04/04 A3026 RMK A01 T00380038  RH  100%=      5-min Rain = 0
KAM3 090631Z 26006KT 04/04 A3026 RMK A01 T00380038  RH  100%=      5-min Rain = 0
KAM3 090632Z 26006KT 04/04 A3026 RMK A01 T00380038  RH  100%=      5-min Rain = 0
KAM3 090633Z 25006KT 04/04 A3026 RMK A01 T00390039  RH  100%=      5-min Rain = 0
KAM3 090634Z 26005KT 04/04 A3026 RMK A01 T00400040  RH  100%=      5-min Rain = 0
KAM3 090635Z 25005KT 04/04 A3026 RMK A01 T00400040  RH  100%=      5-min Rain = 0
KAM3 090636Z 26005KT 04/04 A3026 RMK A01 T00400040  RH  100%=      5-min Rain = 0
KAM3 090637Z 26005KT 04/04 A3026 RMK A01 T00390039  RH  100%=      5-min Rain = 0
KAM3 090638Z 26005KT 04/04 A3026 RMK A01 T00380038  RH  100%=      5-min Rain = 0
KAM3 090639Z 26005KT 04/04 A3026 RMK A01 T00370037  RH  100%=      5-min Rain = 0
KAM3 090640Z 26005KT 04/04 A3026 RMK A01 T00360036  RH  100%=      5-min Rain = 0
KAM3 090641Z 26005KT 04/04 A3026 RMK A01 T00350035  RH  100%=      5-min Rain = 0
KAM3 090642Z 26005KT 03/03 A3026 RMK A01 T00340034  RH  100%=      5-min Rain = 0
KAM3 090643Z 26005KT 03/03 A3026 RMK A01 T00340034  RH  100%=      5-min Rain = 0
KAM3 090644Z 26006KT 03/03 A3026 RMK A01 T00340034  RH  100%=      5-min Rain = 0
KAM3 090645Z 26006KT 03/03 A3026 RMK A01 T00330033  RH  100%=      5-min Rain = 0
KAM3 090646Z 26006KT 03/03 A3026 RMK A01 T00340033  RH  100%=      5-min Rain = 0
KAM3 090647Z 26006KT 03/03 A3026 RMK A01 T00330033  RH  100%=      5-min Rain = 0
KAM3 090648Z 26006KT 03/03 A3026 RMK A01 T00320032  RH  100%=      5-min Rain = 0
KAM3 090649Z 26006KT 03/03 A3026 RMK A01 T00320031  RH  100%=      5-min Rain = 0
KAM3 090650Z 26006KT 03/03 A3026 RMK A01 T00310031  RH  100%=      5-min Rain = 0
KAM3 090651Z 26006KT 03/03 A3026 RMK A01 T00300030  RH  100%=      5-min Rain = 0
KAM3 090652Z 26006KT 03/03 A3026 RMK A01 T00300030  RH  100%=      5-min Rain = 0
KAM3 090653Z 26007KT 03/03 A3026 RMK A01 T00300030  RH  100%=      5-min Rain = 0
KAM3 090654Z 26007KT 03/03 A3026 RMK A01 T00300030  RH  100%=      5-min Rain = 0
KAM3 090655Z 26007KT 03/03 A3027 RMK A01 T00300030  RH  100%=      5-min Rain = 0
KAM3 090656Z 25007KT 03/03 A3027 RMK A01 T00300030  RH  100%=      5-min Rain = 0
KAM3 090657Z 25006KT 03/03 A3027 RMK A01 T00310031  RH  100%=      5-min Rain = 0
KAM3 090658Z 25006KT 03/03 A3026 RMK A01 T00310031  RH  100%=      5-min Rain = 0
KAM3 090659Z 25006KT 03/03 A3026 RMK A01 T00310031  RH  100%=      5-min Rain = 0
KAM3 090700Z 25007KT 03/03 A3026 RMK A01 T00300030  RH  100%=      5-min Rain = 0
KAM3 090701Z 25007KT 03/03 A3026 RMK A01 T00300030  RH  100%=      5-min Rain = 0
KAM3 090702Z 25007KT 03/03 A3026 RMK A01 T00290029  RH  100%=      5-min Rain = 0
KAM3 090703Z 25007KT 03/03 A3026 RMK A01 T00290029  RH  100%=      5-min Rain = 0
KAM3 090704Z 25007KT 03/03 A3026 RMK A01 T00290029  RH  100%=      5-min Rain = 0
KAM3 090705Z 25007KT 03/03 A3026 RMK A01 T00290029  RH  100%=      5-min Rain = 0
KAM3 090706Z 25007KT 03/03 A3026 RMK A01 T00290029  RH  100%=      5-min Rain = 0
KAM3 090707Z 25007KT 03/03 A3026 RMK A01 T00300030  RH  100%=      5-min Rain = 0
KAM3 090708Z 25007KT 03/03 A3026 RMK A01 T00300030  RH  100%=      5-min Rain = 0
KAM3 090709Z 25007KT 03/03 A3026 RMK A01 T00300030  RH  100%=      5-min Rain = 0
KAM3 090710Z 25007KT 03/03 A3026 RMK A01 T00300029  RH  100%=      5-min Rain = 0
KAM3 090711Z 25007KT 03/03 A3026 RMK A01 T00300030  RH  100%=      5-min Rain = 0
KAM3 090712Z 25007KT 03/03 A3026 RMK A01 T00300030  RH  100%=      5-min Rain = 0
KAM3 090713Z 25007KT 03/03 A3026 RMK A01 T00300030  RH  100%=      5-min Rain = 0
KAM3 090714Z 25007KT 03/03 A3026 RMK A01 T00300030  RH  100%=      5-min Rain = 0
KAM3 090715Z 25007KT 03/03 A3026 RMK A01 T00300030  RH  100%=      5-min Rain = 0
KAM3 090721Z 25007KT 03/03 A3026 RMK A01 T00280028  RH  100%=      5-min Rain = 0
KAM3 090722Z 25007KT 03/03 A3026 RMK A01 T00290029  RH  100%=      5-min Rain = 0
KAM3 090723Z 25007KT 03/03 A3026 RMK A01 T00280028  RH  100%=      5-min Rain = 0
KAM3 090724Z 25007KT 03/03 A3026 RMK A01 T00290029  RH  100%=      5-min Rain = 0
KAM3 090725Z 25007KT 03/03 A3026 RMK A01 T00290029  RH  100%=      5-min Rain = 0
KAM3 090726Z 25007KT 03/03 A3026 RMK A01 T00290029  RH  100%=      5-min Rain = 0
KAM3 090727Z 25007KT 03/03 A3026 RMK A01 T00290029  RH  100%=      5-min Rain = 0
KAM3 090728Z 25007KT 03/03 A3026 RMK A01 T00290029  RH  100%=      5-min Rain = 0
KAM3 090729Z 26007KT 03/03 A3026 RMK A01 T00290029  RH  100%=      5-min Rain = 0
KAM3 090730Z 26007KT 03/03 A3026 RMK A01 T00290029  RH  100%=      5-min Rain = 0
KAM3 090731Z 26007KT 03/03 A3026 RMK A01 T00290029  RH  100%=      5-min Rain = 0
KAM3 090732Z 26007KT 03/03 A3026 RMK A01 T00290029  RH  100%=      5-min Rain = 0
KAM3 090733Z 26007KT 03/03 A3026 RMK A01 T00290028  RH  100%=      5-min Rain = 0
KAM3 090734Z 26007KT 03/03 A3026 RMK A01 T00280028  RH  100%=      5-min Rain = 0
KAM3 090735Z 26008KT 03/03 A3026 RMK A01 T00290028  RH  100%=      5-min Rain = 0
KAM3 090736Z 26007KT 03/03 A3026 RMK A01 T00280028  RH  100%=      5-min Rain = 0
KAM3 090737Z 26007KT 03/03 A3026 RMK A01 T00290029  RH  100%=      5-min Rain = 0
KAM3 090738Z 26007KT 03/03 A3025 RMK A01 T00280028  RH  100%=      5-min Rain = 0
KAM3 090739Z 26007KT 03/03 A3025 RMK A01 T00280028  RH  100%=      5-min Rain = 0
KAM3 090740Z 27007KT 03/03 A3025 RMK A01 T00280028  RH  100%=      5-min Rain = 0
KAM3 090741Z 27007KT 03/03 A3025 RMK A01 T00270027  RH  100%=      5-min Rain = 0
KAM3 090742Z 27007KT 03/03 A3025 RMK A01 T00270027  RH  100%=      5-min Rain = 0
KAM3 090743Z 27007KT 03/03 A3025 RMK A01 T00270026  RH  100%=      5-min Rain = 0
KAM3 090744Z 27007KT 03/03 A3025 RMK A01 T00260026  RH  100%=      5-min Rain = 0
KAM3 090745Z 27007KT 03/03 A3025 RMK A01 T00260026  RH  100%=      5-min Rain = 0
KAM3 090746Z 27007KT 03/03 A3025 RMK A01 T00260025  RH  100%=      5-min Rain = 0
KAM3 090747Z 27007KT 03/03 A3025 RMK A01 T00250025  RH  100%=      5-min Rain = 0
KAM3 090748Z 27007KT 03/03 A3025 RMK A01 T00250025  RH  100%=      5-min Rain = 0
KAM3 090749Z 27007KT 03/03 A3025 RMK A01 T00250025  RH  100%=      5-min Rain = 0
KAM3 090750Z 27007KT 03/03 A3025 RMK A01 T00250025  RH  100%=      5-min Rain = 0
KAM3 090751Z 27007KT 03/03 A3025 RMK A01 T00250025  RH  100%=      5-min Rain = 0
KAM3 090752Z 27007KT 03/03 A3025 RMK A01 T00250025  RH  100%=      5-min Rain = 0
KAM3 090753Z 27007KT 03/03 A3025 RMK A01 T00250025  RH  100%=      5-min Rain = 0
KAM3 090754Z 27007KT 03/03 A3025 RMK A01 T00250025  RH  100%=      5-min Rain = 0
KAM3 090755Z 26008KT 03/03 A3025 RMK A01 T00250025  RH  100%=      5-min Rain = 0
KAM3 090756Z 26008KT 03/03 A3025 RMK A01 T00250025  RH  100%=      5-min Rain = 0
KAM3 090757Z 25008KT 03/03 A3025 RMK A01 T00250025  RH  100%=      5-min Rain = 0
KAM3 090758Z 25008KT 03/03 A3025 RMK A01 T00250025  RH  100%=      5-min Rain = 0
KAM3 090759Z 25008KT 02/02 A3025 RMK A01 T00240024  RH  100%=      5-min Rain = 0
KAM3 090800Z 25007KT 02/02 A3025 RMK A01 T00240024  RH  100%=      5-min Rain = 0
KAM3 090801Z 25007KT 02/02 A3025 RMK A01 T00230023  RH  100%=      5-min Rain = 0
KAM3 090802Z 25007KT 02/02 A3025 RMK A01 T00230023  RH  100%=      5-min Rain = 0
KAM3 090803Z 25007KT 02/02 A3025 RMK A01 T00230023  RH  100%=      5-min Rain = 0
KAM3 090804Z 25007KT 02/02 A3025 RMK A01 T00230023  RH  100%=      5-min Rain = 0
KAM3 090805Z 25007KT 02/02 A3025 RMK A01 T00230023  RH  100%=      5-min Rain = 0
KAM3 090806Z 25007KT 02/02 A3025 RMK A01 T00240024  RH  100%=      5-min Rain = 0
KAM3 090807Z 24006KT 02/02 A3025 RMK A01 T00240023  RH  100%=      5-min Rain = 0
KAM3 090808Z 25006KT 02/02 A3025 RMK A01 T00230023  RH  100%=      5-min Rain = 0
KAM3 090809Z 25007KT 02/02 A3025 RMK A01 T00230023  RH  100%=      5-min Rain = 0
KAM3 090810Z 25007KT 02/02 A3025 RMK A01 T00230023  RH  100%=      5-min Rain = 0
KAM3 090811Z 25007KT 02/02 A3025 RMK A01 T00220022  RH  100%=      5-min Rain = 0
KAM3 090812Z 25007KT 02/02 A3025 RMK A01 T00220022  RH  100%=      5-min Rain = 0
KAM3 090813Z 25007KT 02/02 A3025 RMK A01 T00230022  RH  100%=      5-min Rain = 0
KAM3 090814Z 25008KT 02/02 A3025 RMK A01 T00220022  RH  100%=      5-min Rain = 0
KAM3 090815Z 25008KT 02/02 A3025 RMK A01 T00230022  RH  100%=      5-min Rain = 0
KAM3 090816Z 25007KT 02/02 A3025 RMK A01 T00220022  RH  100%=      5-min Rain = 0
KAM3 090817Z 25008KT 02/02 A3025 RMK A01 T00220022  RH  100%=      5-min Rain = 0
KAM3 090818Z 25008KT 02/02 A3025 RMK A01 T00220022  RH  100%=      5-min Rain = 0
KAM3 090819Z 25008KT 02/02 A3025 RMK A01 T00210021  RH  100%=      5-min Rain = 0
KAM3 090820Z 25008KT 02/02 A3025 RMK A01 T00200020  RH  100%=      5-min Rain = 0
KAM3 090821Z 25007KT 02/02 A3025 RMK A01 T00200020  RH  100%=      5-min Rain = 0
KAM3 090822Z 25007KT 02/02 A3025 RMK A01 T00200020  RH  100%=      5-min Rain = 0
KAM3 090823Z 25007KT 02/02 A3025 RMK A01 T00200020  RH  100%=      5-min Rain = 0
KAM3 090824Z 25007KT 02/02 A3025 RMK A01 T00190019  RH  100%=      5-min Rain = 0
KAM3 090825Z 25007KT 02/02 A3025 RMK A01 T00190019  RH  100%=      5-min Rain = 0
KAM3 090826Z 25007KT 02/02 A3025 RMK A01 T00180018  RH  100%=      5-min Rain = 0
KAM3 090827Z 24007KT 02/02 A3025 RMK A01 T00180018  RH  100%=      5-min Rain = 0
KAM3 090828Z 24007KT 02/02 A3024 RMK A01 T00170017  RH  100%=      5-min Rain = 0
KAM3 090829Z 24007KT 02/02 A3024 RMK A01 T00170017  RH  100%=      5-min Rain = 0
KAM3 090830Z 24007KT 02/02 A3024 RMK A01 T00160016  RH  100%=      5-min Rain = 0
KAM3 090831Z 24007KT 02/02 A3024 RMK A01 T00150015  RH  100%=      5-min Rain = 0
KAM3 090832Z 24007KT 02/02 A3024 RMK A01 T00150015  RH  100%=      5-min Rain = 0
KAM3 090833Z 24007KT 02/02 A3024 RMK A01 T00150015  RH  100%=      5-min Rain = 0
KAM3 090834Z 24007KT 02/01 A3024 RMK A01 T00150014  RH  100%=      5-min Rain = 0
KAM3 090835Z 24007KT 02/01 A3024 RMK A01 T00150014  RH  100%=      5-min Rain = 0
KAM3 090836Z 24007KT 02/02 A3024 RMK A01 T00150015  RH  100%=      5-min Rain = 0
KAM3 090837Z 24007KT 02/01 A3024 RMK A01 T00150014  RH  100%=      5-min Rain = 0
KAM3 090838Z 24008KT 01/01 A3024 RMK A01 T00140014  RH  100%=      5-min Rain = 0
KAM3 090839Z 24008KT 02/02 A3024 RMK A01 T00150015  RH  100%=      5-min Rain = 0
KAM3 090840Z 24008KT 02/01 A3024 RMK A01 T00150014  RH  100%=      5-min Rain = 0
KAM3 090841Z 24008KT 02/02 A3024 RMK A01 T00150015  RH  100%=      5-min Rain = 0
KAM3 090842Z 24008KT 02/01 A3024 RMK A01 T00150014  RH  100%=      5-min Rain = 0
KAM3 090843Z 25008KT 02/02 A3024 RMK A01 T00150015  RH  100%=      5-min Rain = 0
KAM3 090844Z 25009KT 02/02 A3024 RMK A01 T00160016  RH  100%=      5-min Rain = 0
KAM3 090845Z 25008KT 02/02 A3024 RMK A01 T00180017  RH  100%=      5-min Rain = 0
KAM3 090846Z 25008KT 02/02 A3024 RMK A01 T00190019  RH  100%=      5-min Rain = 0
KAM3 090847Z 25008KT 02/02 A3024 RMK A01 T00200020  RH  100%=      5-min Rain = 0
KAM3 090848Z 25008KT 02/02 A3024 RMK A01 T00200020  RH  100%=      5-min Rain = 0
KAM3 090849Z 25007KT 02/02 A3024 RMK A01 T00200020  RH  100%=      5-min Rain = 0
KAM3 090850Z 25007KT 02/02 A3024 RMK A01 T00200020  RH  100%=      5-min Rain = 0
KAM3 090851Z 26007KT 02/02 A3024 RMK A01 T00200020  RH  100%=      5-min Rain = 0
KAM3 090852Z 26007KT 02/02 A3024 RMK A01 T00200020  RH  100%=      5-min Rain = 0
KAM3 090853Z 26007KT 02/02 A3024 RMK A01 T00200020  RH  100%=      5-min Rain = 0
KAM3 090854Z 26007KT 02/02 A3024 RMK A01 T00200020  RH  100%=      5-min Rain = 0
KAM3 090855Z 26007KT 02/02 A3024 RMK A01 T00200019  RH  100%=      5-min Rain = 0
KAM3 090856Z 26007KT 02/02 A3024 RMK A01 T00190019  RH  100%=      5-min Rain = 0
KAM3 090857Z 26007KT 02/02 A3024 RMK A01 T00190019  RH  100%=      5-min Rain = 0
KAM3 090858Z 26007KT 02/02 A3024 RMK A01 T00190019  RH  100%=      5-min Rain = 0
KAM3 090859Z 26008KT 02/02 A3024 RMK A01 T00180018  RH  100%=      5-min Rain = 0
KAM3 090900Z 26007KT 02/02 A3024 RMK A01 T00190019  RH  100%=      5-min Rain = 0
KAM3 090901Z 26007KT 02/02 A3024 RMK A01 T00180018  RH  100%=      5-min Rain = 0
KAM3 090902Z 26007KT 02/02 A3024 RMK A01 T00180018  RH  100%=      5-min Rain = 0
KAM3 090903Z 26007KT 02/02 A3024 RMK A01 T00180018  RH  100%=      5-min Rain = 0
KAM3 090904Z 26007KT 02/02 A3024 RMK A01 T00170017  RH  100%=      5-min Rain = 0
KAM3 090905Z 26007KT 02/02 A3024 RMK A01 T00170017  RH  100%=      5-min Rain = 0
KAM3 090906Z 26008KT 02/02 A3024 RMK A01 T00180018  RH  100%=      5-min Rain = 0
KAM3 090907Z 25008KT 02/02 A3024 RMK A01 T00170017  RH  100%=      5-min Rain = 0
KAM3 090908Z 25007KT 02/02 A3024 RMK A01 T00170017  RH  100%=      5-min Rain = 0
KAM3 090909Z 25007KT 02/02 A3024 RMK A01 T00170016  RH  100%=      5-min Rain = 0
KAM3 090910Z 25008KT 02/02 A3024 RMK A01 T00160016  RH  100%=      5-min Rain = 0
KAM3 090911Z 25007KT 02/02 A3023 RMK A01 T00160016  RH  100%=      5-min Rain = 0
KAM3 090912Z 24007KT 02/02 A3023 RMK A01 T00160016  RH  100%=      5-min Rain = 0
KAM3 090913Z 24008KT 02/02 A3023 RMK A01 T00150015  RH  100%=      5-min Rain = 0
KAM3 090914Z 24007KT 01/01 A3023 RMK A01 T00140014  RH  100%=      5-min Rain = 0
KAM3 090915Z 24006KT 01/01 A3023 RMK A01 T00130013  RH  100%=      5-min Rain = 0
KAM3 090916Z 24007KT 01/01 A3023 RMK A01 T00130013  RH  100%=      5-min Rain = 0
KAM3 090917Z 24007KT 01/01 A3023 RMK A01 T00130013  RH  100%=      5-min Rain = 0
KAM3 090918Z 24006KT 01/01 A3023 RMK A01 T00120012  RH  100%=      5-min Rain = 0
KAM3 090919Z 24006KT 01/01 A3023 RMK A01 T00120012  RH  100%=      5-min Rain = 0
KAM3 090920Z 24006KT 01/01 A3023 RMK A01 T00110011  RH  100%=      5-min Rain = 0
KAM3 090921Z 24006KT 01/01 A3023 RMK A01 T00100010  RH  100%=      5-min Rain = 0
KAM3 090922Z 24005KT 01/01 A3023 RMK A01 T00100010  RH  100%=      5-min Rain = 0
KAM3 090923Z 24005KT 01/01 A3023 RMK A01 T00090009  RH  100%=      5-min Rain = 0
KAM3 090924Z 24005KT 01/01 A3023 RMK A01 T00080008  RH  100%=      5-min Rain = 0
KAM3 090925Z 24005KT 01/01 A3023 RMK A01 T00080008  RH  100%=      5-min Rain = 0
KAM3 090926Z 25005KT 01/01 A3023 RMK A01 T00070007  RH  100%=      5-min Rain = 0
KAM3 090927Z 25005KT 01/01 A3023 RMK A01 T00070007  RH  100%=      5-min Rain = 0
KAM3 090928Z 25005KT 01/01 A3023 RMK A01 T00080007  RH  100%=      5-min Rain = 0
KAM3 090929Z 24005KT 01/01 A3023 RMK A01 T00070007  RH  100%=      5-min Rain = 0
KAM3 090930Z 24006KT 01/01 A3023 RMK A01 T00070007  RH  100%=      5-min Rain = 0
KAM3 090931Z 24006KT 01/01 A3023 RMK A01 T00060006  RH  100%=      5-min Rain = 0
KAM3 090932Z 25006KT 01/01 A3023 RMK A01 T00050005  RH  100%=      5-min Rain = 0
KAM3 090933Z 25006KT 01/01 A3023 RMK A01 T00050005  RH  100%=      5-min Rain = 0
KAM3 090934Z 25007KT 01/01 A3023 RMK A01 T00050005  RH  100%=      5-min Rain = 0
KAM3 090935Z 25007KT 01/01 A3023 RMK A01 T00050005  RH  100%=      5-min Rain = 0
KAM3 090936Z 25007KT 01/01 A3023 RMK A01 T00050005  RH  100%=      5-min Rain = 0
KAM3 090937Z 25007KT 01/01 A3023 RMK A01 T00070007  RH  100%=      5-min Rain = 0
KAM3 090938Z 25008KT 01/01 A3023 RMK A01 T00080008  RH  100%=      5-min Rain = 0
KAM3 090939Z 26007KT 01/01 A3023 RMK A01 T00080008  RH  100%=      5-min Rain = 0
KAM3 090940Z 26007KT 01/01 A3023 RMK A01 T00090009  RH  100%=      5-min Rain = 0
KAM3 090941Z 26007KT 01/01 A3023 RMK A01 T00090009  RH  100%=      5-min Rain = 0
KAM3 090942Z 26007KT 01/01 A3023 RMK A01 T00090009  RH  100%=      5-min Rain = 0
KAM3 090943Z 26007KT 01/01 A3023 RMK A01 T00090009  RH  100%=      5-min Rain = 0
KAM3 090944Z 26007KT 01/01 A3023 RMK A01 T00100010  RH  100%=      5-min Rain = 0
KAM3 090945Z 26006KT 01/01 A3023 RMK A01 T00100010  RH  100%=      5-min Rain = 0
KAM3 090946Z 26006KT 01/01 A3023 RMK A01 T00100010  RH  100%=      5-min Rain = 0
KAM3 090947Z 26006KT 01/01 A3023 RMK A01 T00110011  RH  100%=      5-min Rain = 0
KAM3 090948Z 26005KT 01/01 A3023 RMK A01 T00120011  RH  100%=      5-min Rain = 0
KAM3 090949Z 26005KT 01/01 A3023 RMK A01 T00120011  RH  100%=      5-min Rain = 0
KAM3 090950Z 26005KT 01/01 A3023 RMK A01 T00120012  RH  100%=      5-min Rain = 0
KAM3 090951Z 26005KT 01/01 A3023 RMK A01 T00120012  RH  100%=      5-min Rain = 0
KAM3 090952Z 25005KT 01/01 A3023 RMK A01 T00120012  RH  100%=      5-min Rain = 0
KAM3 090953Z 25005KT 01/01 A3023 RMK A01 T00120012  RH  100%=      5-min Rain = 0
KAM3 090954Z 26005KT 01/01 A3023 RMK A01 T00120012  RH  100%=      5-min Rain = 0
KAM3 090955Z 26005KT 01/01 A3023 RMK A01 T00110011  RH  100%=      5-min Rain = 0
KAM3 090956Z 26006KT 01/01 A3023 RMK A01 T00110011  RH  100%=      5-min Rain = 0
KAM3 090957Z 26006KT 01/01 A3023 RMK A01 T00110010  RH  100%=      5-min Rain = 0
KAM3 090958Z 26006KT 01/01 A3023 RMK A01 T00110010  RH  100%=      5-min Rain = 0
KAM3 090959Z 26006KT 01/01 A3023 RMK A01 T00110011  RH  100%=      5-min Rain = 0
KAM3 091000Z 26006KT 01/01 A3023 RMK A01 T00100010  RH  100%=      5-min Rain = 0
KAM3 091001Z 26006KT 01/01 A3023 RMK A01 T00100010  RH  100%=      5-min Rain = 0
KAM3 091002Z 26006KT 01/01 A3023 RMK A01 T00100010  RH  100%=      5-min Rain = 0
KAM3 091003Z 26006KT 01/01 A3023 RMK A01 T00100010  RH  100%=      5-min Rain = 0
KAM3 091004Z 26006KT 01/01 A3023 RMK A01 T00110011  RH  100%=      5-min Rain = 0
KAM3 091005Z 26006KT 01/01 A3023 RMK A01 T00120011  RH  100%=      5-min Rain = 0
KAM3 091006Z 26006KT 01/01 A3023 RMK A01 T00120012  RH  100%=      5-min Rain = 0
KAM3 091007Z 26007KT 01/01 A3022 RMK A01 T00120012  RH  100%=      5-min Rain = 0
KAM3 091008Z 26006KT 01/01 A3022 RMK A01 T00120012  RH  100%=      5-min Rain = 0
KAM3 091009Z 26006KT 01/01 A3022 RMK A01 T00120012  RH  100%=      5-min Rain = 0
KAM3 091010Z 26006KT 01/01 A3022 RMK A01 T00120012  RH  100%=      5-min Rain = 0
KAM3 091011Z 27006KT 01/01 A3022 RMK A01 T00120012  RH  100%=      5-min Rain = 0
KAM3 091012Z 27006KT 01/01 A3022 RMK A01 T00120011  RH  100%=      5-min Rain = 0
KAM3 091013Z 27006KT 01/01 A3022 RMK A01 T00110011  RH  100%=      5-min Rain = 0
KAM3 091014Z 27006KT 01/01 A3022 RMK A01 T00120012  RH  100%=      5-min Rain = 0
KAM3 091015Z 27006KT 01/01 A3022 RMK A01 T00120012  RH  100%=      5-min Rain = 0
KAM3 091016Z 27006KT 01/01 A3022 RMK A01 T00120012  RH  100%=      5-min Rain = 0
KAM3 091017Z 27006KT 01/01 A3022 RMK A01 T00130013  RH  100%=      5-min Rain = 0
KAM3 091018Z 27006KT 01/01 A3022 RMK A01 T00130013  RH  100%=      5-min Rain = 0
KAM3 091019Z 27006KT 01/01 A3022 RMK A01 T00130013  RH  100%=      5-min Rain = 0
KAM3 091020Z 27006KT 01/01 A3022 RMK A01 T00130013  RH  100%=      5-min Rain = 0
KAM3 091021Z 27006KT 01/01 A3022 RMK A01 T00130013  RH  100%=      5-min Rain = 0
KAM3 091022Z 27006KT 01/01 A3022 RMK A01 T00130013  RH  100%=      5-min Rain = 0
KAM3 091023Z 27006KT 01/01 A3022 RMK A01 T00130013  RH  100%=      5-min Rain = 0
KAM3 091024Z 27006KT 01/01 A3022 RMK A01 T00130013  RH  100%=      5-min Rain = 0
KAM3 091025Z 27006KT 01/01 A3022 RMK A01 T00130013  RH  100%=      5-min Rain = 0
KAM3 091026Z 27006KT 01/01 A3022 RMK A01 T00130013  RH  100%=      5-min Rain = 0
KAM3 091027Z 27006KT 01/01 A3022 RMK A01 T00130013  RH  100%=      5-min Rain = 0
KAM3 091028Z 27006KT 01/01 A3022 RMK A01 T00130013  RH  100%=      5-min Rain = 0
KAM3 091029Z 27007KT 01/01 A3022 RMK A01 T00130013  RH  100%=      5-min Rain = 0
KAM3 091030Z 27007KT 01/01 A3022 RMK A01 T00130013  RH  100%=      5-min Rain = 0
KAM3 091031Z 27007KT 01/01 A3022 RMK A01 T00130013  RH  100%=      5-min Rain = 0
KAM3 091032Z 27007KT 01/01 A3022 RMK A01 T00130013  RH  100%=      5-min Rain = 0
KAM3 091033Z 27007KT 01/01 A3022 RMK A01 T00130013  RH  100%=      5-min Rain = 0
KAM3 091034Z 27007KT 01/01 A3022 RMK A01 T00130012  RH  100%=      5-min Rain = 0
KAM3 091035Z 26007KT 01/01 A3022 RMK A01 T00120012  RH  100%=      5-min Rain = 0
KAM3 091036Z 26007KT 01/01 A3022 RMK A01 T00120012  RH  100%=      5-min Rain = 0
KAM3 091037Z 26007KT 01/01 A3022 RMK A01 T00120012  RH  100%=      5-min Rain = 0
KAM3 091038Z 26007KT 01/01 A3022 RMK A01 T00120012  RH  100%=      5-min Rain = 0
KAM3 091039Z 26007KT 01/01 A3022 RMK A01 T00120012  RH  100%=      5-min Rain = 0
KAM3 091040Z 27007KT 01/01 A3022 RMK A01 T00120012  RH  100%=      5-min Rain = 0
KAM3 091041Z 27007KT 01/01 A3022 RMK A01 T00120012  RH  100%=      5-min Rain = 0
KAM3 091042Z 27007KT 01/01 A3022 RMK A01 T00120012  RH  100%=      5-min Rain = 0
KAM3 091043Z 27007KT 01/01 A3022 RMK A01 T00120012  RH  100%=      5-min Rain = 0
KAM3 091044Z 27007KT 01/01 A3022 RMK A01 T00130013  RH  100%=      5-min Rain = 0
KAM3 091045Z 27007KT 01/01 A3022 RMK A01 T00120012  RH  100%=      5-min Rain = 0
KAM3 091046Z 27007KT 01/01 A3022 RMK A01 T00120012  RH  100%=      5-min Rain = 0
KAM3 091047Z 27007KT 01/01 A3022 RMK A01 T00120012  RH  100%=      5-min Rain = 0
KAM3 091048Z 27007KT 01/01 A3022 RMK A01 T00120012  RH  100%=      5-min Rain = 0
KAM3 091049Z 26007KT 01/01 A3022 RMK A01 T00130013  RH  100%=      5-min Rain = 0
KAM3 091050Z 27007KT 01/01 A3022 RMK A01 T00130013  RH  100%=      5-min Rain = 0
KAM3 091051Z 26007KT 01/01 A3022 RMK A01 T00130013  RH  100%=      5-min Rain = 0
KAM3 091052Z 26007KT 01/01 A3022 RMK A01 T00130013  RH  100%=      5-min Rain = 0
KAM3 091053Z 26007KT 01/01 A3022 RMK A01 T00130012  RH  100%=      5-min Rain = 0
KAM3 091054Z 26007KT 01/01 A3022 RMK A01 T00120012  RH  100%=      5-min Rain = 0
KAM3 091055Z 26007KT 01/01 A3022 RMK A01 T00110011  RH  100%=      5-min Rain = 0
KAM3 091056Z 27007KT 01/01 A3022 RMK A01 T00110011  RH  100%=      5-min Rain = 0
KAM3 091057Z 27007KT 01/01 A3022 RMK A01 T00110011  RH  100%=      5-min Rain = 0
KAM3 091058Z 27007KT 01/01 A3022 RMK A01 T00120012  RH  100%=      5-min Rain = 0
KAM3 091059Z 27007KT 01/01 A3022 RMK A01 T00120011  RH  100%=      5-min Rain = 0
KAM3 091100Z 27007KT 01/01 A3022 RMK A01 T00110011  RH  100%=      5-min Rain = 0
KAM3 091101Z 27007KT 01/01 A3022 RMK A01 T00120011  RH  100%=      5-min Rain = 0
KAM3 091102Z 27007KT 01/01 A3022 RMK A01 T00120012  RH  100%=      5-min Rain = 0
KAM3 091103Z 27007KT 01/01 A3022 RMK A01 T00130012  RH  100%=      5-min Rain = 0
KAM3 091104Z 27007KT 01/01 A3022 RMK A01 T00130013  RH  100%=      5-min Rain = 0
KAM3 091105Z 28007KT 01/01 A3022 RMK A01 T00130013  RH  100%=      5-min Rain = 0
KAM3 091106Z 28007KT 01/01 A3022 RMK A01 T00140014  RH  100%=      5-min Rain = 0
KAM3 091107Z 28008KT 01/01 A3022 RMK A01 T00140014  RH  100%=      5-min Rain = 0
KAM3 091108Z 28007KT 01/01 A3022 RMK A01 T00140014  RH  100%=      5-min Rain = 0
KAM3 091109Z 27008KT 01/01 A3022 RMK A01 T00140014  RH  100%=      5-min Rain = 0
KAM3 091110Z 27008KT 01/01 A3022 RMK A01 T00140014  RH  100%=      5-min Rain = 0
KAM3 091111Z 27007KT 02/02 A3022 RMK A01 T00150015  RH  100%=      5-min Rain = 0
KAM3 091112Z 27007KT 02/02 A3022 RMK A01 T00150015  RH  100%=      5-min Rain = 0
KAM3 091113Z 27007KT 01/01 A3022 RMK A01 T00140014  RH  100%=      5-min Rain = 0
KAM3 091114Z 27007KT 01/01 A3022 RMK A01 T00140014  RH  100%=      5-min Rain = 0
KAM3 091115Z 26007KT 01/01 A3022 RMK A01 T00140014  RH  100%=      5-min Rain = 0
KAM3 091116Z 26007KT 01/01 A3022 RMK A01 T00140014  RH  100%=      5-min Rain = 0
KAM3 091117Z 26007KT 01/01 A3022 RMK A01 T00140014  RH  100%=      5-min Rain = 0
KAM3 091118Z 26007KT 01/01 A3022 RMK A01 T00140013  RH  100%=      5-min Rain = 0
KAM3 091119Z 26007KT 01/01 A3022 RMK A01 T00120012  RH  100%=      5-min Rain = 0
KAM3 091120Z 26007KT 01/01 A3022 RMK A01 T00110011  RH  100%=      5-min Rain = 0
KAM3 091121Z 26007KT 01/01 A3022 RMK A01 T00110010  RH  100%=      5-min Rain = 0
KAM3 091122Z 26007KT 01/01 A3022 RMK A01 T00100010  RH  100%=      5-min Rain = 0
KAM3 091123Z 26008KT 01/01 A3022 RMK A01 T00100010  RH  100%=      5-min Rain = 0
KAM3 091124Z 26008KT 01/01 A3022 RMK A01 T00100010  RH  100%=      5-min Rain = 0
KAM3 091125Z 26007KT 01/01 A3022 RMK A01 T00100010  RH  100%=      5-min Rain = 0
KAM3 091126Z 26008KT 01/01 A3022 RMK A01 T00100009  RH  100%=      5-min Rain = 0
KAM3 091127Z 27008KT 01/01 A3022 RMK A01 T00090009  RH  100%=      5-min Rain = 0
KAM3 091128Z 27008KT 01/01 A3022 RMK A01 T00090009  RH  100%=      5-min Rain = 0
KAM3 091129Z 27007KT 01/01 A3022 RMK A01 T00100010  RH  100%=      5-min Rain = 0
KAM3 091130Z 27008KT 01/01 A3022 RMK A01 T00100010  RH  100%=      5-min Rain = 0
KAM3 091131Z 27008KT 01/01 A3022 RMK A01 T00100010  RH  100%=      5-min Rain = 0
KAM3 091132Z 27008KT 01/01 A3022 RMK A01 T00100010  RH  100%=      5-min Rain = 0
KAM3 091133Z 27008KT 01/01 A3022 RMK A01 T00100010  RH  100%=      5-min Rain = 0
KAM3 091134Z 27008KT 01/01 A3022 RMK A01 T00100010  RH  100%=      5-min Rain = 0
KAM3 091135Z 27008KT 01/01 A3022 RMK A01 T00110010  RH  100%=      5-min Rain = 0
KAM3 091136Z 27008KT 01/01 A3022 RMK A01 T00100010  RH  100%=      5-min Rain = 0
KAM3 091137Z 27008KT 01/01 A3022 RMK A01 T00110010  RH  100%=      5-min Rain = 0
KAM3 091138Z 27008KT 01/01 A3022 RMK A01 T00110010  RH  100%=      5-min Rain = 0
KAM3 091139Z 27008KT 01/01 A3022 RMK A01 T00110010  RH  100%=      5-min Rain = 0
KAM3 091140Z 27008KT 01/01 A3022 RMK A01 T00110011  RH  100%=      5-min Rain = 0
KAM3 091141Z 27008KT 01/01 A3022 RMK A01 T00110011  RH  100%=      5-min Rain = 0
KAM3 091142Z 27008KT 01/01 A3022 RMK A01 T00110011  RH  100%=      5-min Rain = 0
KAM3 091143Z 27007KT 01/01 A3022 RMK A01 T00110011  RH  100%=      5-min Rain = 0
KAM3 091144Z 26008KT 01/01 A3022 RMK A01 T00110011  RH  100%=      5-min Rain = 0
KAM3 091145Z 26008KT 01/01 A3022 RMK A01 T00110011  RH  100%=      5-min Rain = 0
KAM3 091146Z 26008KT 01/01 A3022 RMK A01 T00110011  RH  100%=      5-min Rain = 0
KAM3 091147Z 26008KT 01/01 A3022 RMK A01 T00110011  RH  100%=      5-min Rain = 0
KAM3 091148Z 26008KT 01/01 A3022 RMK A01 T00110011  RH  100%=      5-min Rain = 0
KAM3 091149Z 26008KT 01/01 A3022 RMK A01 T00110010  RH  100%=      5-min Rain = 0
KAM3 091150Z 27008KT 01/01 A3022 RMK A01 T00110010  RH  100%=      5-min Rain = 0
KAM3 091151Z 27008KT 01/01 A3022 RMK A01 T00110010  RH  100%=      5-min Rain = 0
KAM3 091152Z 27008KT 01/01 A3022 RMK A01 T00110011  RH  100%=      5-min Rain = 0
KAM3 091153Z 27008KT 01/01 A3022 RMK A01 T00110010  RH  100%=      5-min Rain = 0
KAM3 091154Z 27008KT 01/01 A3022 RMK A01 T00100010  RH  100%=      5-min Rain = 0
KAM3 091155Z 27008KT 01/01 A3022 RMK A01 T00100010  RH  100%=      5-min Rain = 0
KAM3 091156Z 27008KT 01/01 A3022 RMK A01 T00100010  RH  100%=      5-min Rain = 0
KAM3 091157Z 26008KT 01/01 A3022 RMK A01 T00100010  RH  100%=      5-min Rain = 0
KAM3 091158Z 26008KT 01/01 A3022 RMK A01 T00100009  RH  100%=      5-min Rain = 0
KAM3 091159Z 27008KT 01/01 A3022 RMK A01 T00090009  RH  100%=      5-min Rain = 0
KAM3 091200Z 27008KT 01/01 A3022 RMK A01 T00090009  RH  100%=      5-min Rain = 0
KAM3 091201Z 26008KT 01/01 A3022 RMK A01 T00100010  RH  100%=      5-min Rain = 0
KAM3 091202Z 26008KT 01/01 A3022 RMK A01 T00100010  RH  100%=      5-min Rain = 0
KAM3 091203Z 26008KT 01/01 A3022 RMK A01 T00100010  RH  100%=      5-min Rain = 0
KAM3 091204Z 26008KT 01/01 A3022 RMK A01 T00100010  RH  100%=      5-min Rain = 0
KAM3 091205Z 27007KT 01/01 A3022 RMK A01 T00100010  RH  100%=      5-min Rain = 0
KAM3 091206Z 27007KT 01/01 A3022 RMK A01 T00100010  RH  100%=      5-min Rain = 0
KAM3 091207Z 27008KT 01/01 A3022 RMK A01 T00100010  RH  100%=      5-min Rain = 0
KAM3 091208Z 27008KT 01/01 A3023 RMK A01 T00110011  RH  100%=      5-min Rain = 0
KAM3 091209Z 27008KT 01/01 A3023 RMK A01 T00110010  RH  100%=      5-min Rain = 0
KAM3 091210Z 27008KT 01/01 A3023 RMK A01 T00100010  RH  100%=      5-min Rain = 0
KAM3 091211Z 27008KT 01/01 A3023 RMK A01 T00100010  RH  100%=      5-min Rain = 0
KAM3 091212Z 26008KT 01/01 A3023 RMK A01 T00100010  RH  100%=      5-min Rain = 0
KAM3 091213Z 26007KT 01/01 A3023 RMK A01 T00100010  RH  100%=      5-min Rain = 0
KAM3 091214Z 26008KT 01/01 A3023 RMK A01 T00100010  RH  100%=      5-min Rain = 0
KAM3 091215Z 27008KT 01/01 A3023 RMK A01 T00100010  RH  100%=      5-min Rain = 0
KAM3 091216Z 27008KT 01/01 A3023 RMK A01 T00100010  RH  100%=      5-min Rain = 0
KAM3 091217Z 27008KT 01/01 A3023 RMK A01 T00100010  RH  100%=      5-min Rain = 0
KAM3 091218Z 26007KT 01/01 A3023 RMK A01 T00100010  RH  100%=      5-min Rain = 0
KAM3 091219Z 27007KT 01/01 A3023 RMK A01 T00100010  RH  100%=      5-min Rain = 0
KAM3 091220Z 26008KT 01/01 A3023 RMK A01 T00100010  RH  100%=      5-min Rain = 0
KAM3 091221Z 26008KT 01/01 A3023 RMK A01 T00110011  RH  100%=      5-min Rain = 0
KAM3 091222Z 26008KT 01/01 A3023 RMK A01 T00110011  RH  100%=      5-min Rain = 0
KAM3 091223Z 26007KT 01/01 A3023 RMK A01 T00110011  RH  100%=      5-min Rain = 0
KAM3 091224Z 26007KT 01/01 A3023 RMK A01 T00110011  RH  100%=      5-min Rain = 0
KAM3 091225Z 26008KT 01/01 A3023 RMK A01 T00100010  RH  100%=      5-min Rain = 0
KAM3 091226Z 26008KT 01/01 A3023 RMK A01 T00100010  RH  100%=      5-min Rain = 0
KAM3 091227Z 26007KT 01/01 A3023 RMK A01 T00100010  RH  100%=      5-min Rain = 0
KAM3 091228Z 26007KT 01/01 A3023 RMK A01 T00100010  RH  100%=      5-min Rain = 0
KAM3 091229Z 26007KT 01/01 A3023 RMK A01 T00100010  RH  100%=      5-min Rain = 0
KAM3 091230Z 25007KT 01/01 A3023 RMK A01 T00100010  RH  100%=      5-min Rain = 0
KAM3 091231Z 25006KT 01/01 A3023 RMK A01 T00100010  RH  100%=      5-min Rain = 0
KAM3 091232Z 25006KT 01/01 A3023 RMK A01 T00090009  RH  100%=      5-min Rain = 0
KAM3 091233Z 25006KT 01/01 A3023 RMK A01 T00080008  RH  100%=      5-min Rain = 0
KAM3 091234Z 25006KT 01/01 A3023 RMK A01 T00070007  RH  100%=      5-min Rain = 0
KAM3 091235Z 24006KT 01/01 A3023 RMK A01 T00070006  RH  100%=      5-min Rain = 0
KAM3 091236Z 24006KT 01/01 A3023 RMK A01 T00060006  RH  100%=      5-min Rain = 0
KAM3 091237Z 24006KT 01/01 A3023 RMK A01 T00050005  RH  100%=      5-min Rain = 0
KAM3 091238Z 25006KT 00/00 A3023 RMK A01 T00040004  RH  100%=      5-min Rain = 0
KAM3 091239Z 25006KT 00/00 A3023 RMK A01 T00030003  RH  100%=      5-min Rain = 0
KAM3 091240Z 25006KT 00/00 A3023 RMK A01 T00030003  RH  100%=      5-min Rain = 0
KAM3 091241Z 25006KT 00/00 A3023 RMK A01 T00030003  RH  100%=      5-min Rain = 0
KAM3 091242Z 25006KT 00/00 A3023 RMK A01 T00030003  RH  100%=      5-min Rain = 0
KAM3 091243Z 25007KT 00/00 A3023 RMK A01 T00030003  RH  100%=      5-min Rain = 0
KAM3 091244Z 25007KT 00/00 A3023 RMK A01 T00030003  RH  100%=      5-min Rain = 0
KAM3 091245Z 25006KT 00/00 A3023 RMK A01 T00030003  RH  100%=      5-min Rain = 0
KAM3 091246Z 25007KT 00/00 A3023 RMK A01 T00020002  RH  100%=      5-min Rain = 0
KAM3 091247Z 25007KT 00/00 A3023 RMK A01 T00020002  RH  100%=      5-min Rain = 0
KAM3 091248Z 25007KT 00/00 A3023 RMK A01 T00010001  RH  100%=      5-min Rain = 0
KAM3 091249Z 25007KT 00/00 A3023 RMK A01 T00-000-0  RH  100%=      5-min Rain = 0
KAM3 091250Z 25007KT M00/M00 A3023 RMK A01 T10011001  RH  100%=      5-min Rain = 0
KAM3 091251Z 25007KT M00/M00 A3023 RMK A01 T10021002  RH  100%=      5-min Rain = 0
KAM3 091252Z 25007KT M00/M00 A3023 RMK A01 T10021003  RH  100%=      5-min Rain = 0
KAM3 091253Z 25007KT M00/M00 A3023 RMK A01 T10031003  RH  100%=      5-min Rain = 0
KAM3 091254Z 25007KT M00/M00 A3023 RMK A01 T10021002  RH  100%=      5-min Rain = 0
KAM3 091255Z 25007KT M00/M00 A3023 RMK A01 T10021002  RH  100%=      5-min Rain = 0
KAM3 091256Z 25007KT M00/M00 A3023 RMK A01 T10011001  RH  100%=      5-min Rain = 0
KAM3 091257Z 25007KT M00/M00 A3023 RMK A01 T10011001  RH  100%=      5-min Rain = 0
KAM3 091258Z 26007KT M00/M00 A3023 RMK A01 T10011001  RH  100%=      5-min Rain = 0
KAM3 091259Z 26007KT 00/00 A3023 RMK A01 T00-000-0  RH  100%=      5-min Rain = 0
KAM3 091300Z 26008KT 00/00 A3023 RMK A01 T00-000-0  RH  100%=      5-min Rain = 0
KAM3 091301Z 26008KT 00/00 A3023 RMK A01 T00000000  RH  100%=      5-min Rain = 0
KAM3 091302Z 26008KT 00/00 A3023 RMK A01 T00000000  RH  100%=      5-min Rain = 0
KAM3 091303Z 26008KT 00/00 A3023 RMK A01 T00010001  RH  100%=      5-min Rain = 0
KAM3 091304Z 26008KT 00/00 A3023 RMK A01 T00010001  RH  100%=      5-min Rain = 0
KAM3 091305Z 26008KT 00/00 A3023 RMK A01 T00020002  RH  100%=      5-min Rain = 0
KAM3 091306Z 26008KT 00/00 A3023 RMK A01 T00030003  RH  100%=      5-min Rain = 0
KAM3 091307Z 26008KT 00/00 A3023 RMK A01 T00030003  RH  100%=      5-min Rain = 0
KAM3 091308Z 26008KT 00/00 A3023 RMK A01 T00030003  RH  100%=      5-min Rain = 0
KAM3 091309Z 26008KT 00/00 A3023 RMK A01 T00040004  RH  100%=      5-min Rain = 0
KAM3 091310Z 25008KT 00/00 A3023 RMK A01 T00040004  RH  100%=      5-min Rain = 0
KAM3 091311Z 25008KT 00/00 A3023 RMK A01 T00040004  RH  100%=      5-min Rain = 0
KAM3 091312Z 25008KT 00/00 A3023 RMK A01 T00040004  RH  100%=      5-min Rain = 0
KAM3 091313Z 25008KT 00/00 A3023 RMK A01 T00040004  RH  100%=      5-min Rain = 0
KAM3 091314Z 25009KT 00/00 A3023 RMK A01 T00030003  RH  100%=      5-min Rain = 0
KAM3 091315Z 25009KT 00/00 A3023 RMK A01 T00030003  RH  100%=      5-min Rain = 0
KAM3 091316Z 25009KT 00/00 A3023 RMK A01 T00040004  RH  100%=      5-min Rain = 0
KAM3 091317Z 25008KT 00/00 A3023 RMK A01 T00040004  RH  100%=      5-min Rain = 0
KAM3 091318Z 25008KT 01/01 A3023 RMK A01 T00050005  RH  100%=      5-min Rain = 0
KAM3 091319Z 25008KT 01/01 A3023 RMK A01 T00050005  RH  100%=      5-min Rain = 0
KAM3 091320Z 25008KT 01/01 A3023 RMK A01 T00050005  RH  100%=      5-min Rain = 0
KAM3 091321Z 25008KT 00/00 A3023 RMK A01 T00040004  RH  100%=      5-min Rain = 0
KAM3 091322Z 26008KT 01/00 A3023 RMK A01 T00050004  RH  100%=      5-min Rain = 0
KAM3 091323Z 26008KT 01/01 A3023 RMK A01 T00050005  RH  100%=      5-min Rain = 0
KAM3 091324Z 26008KT 01/01 A3023 RMK A01 T00060006  RH  100%=      5-min Rain = 0
KAM3 091325Z 26008KT 01/01 A3023 RMK A01 T00060006  RH  100%=      5-min Rain = 0
KAM3 091326Z 26008KT 01/01 A3023 RMK A01 T00070007  RH  100%=      5-min Rain = 0
KAM3 091327Z 26009KT 01/01 A3023 RMK A01 T00080007  RH  100%=      5-min Rain = 0
KAM3 091328Z 26008KT 01/01 A3023 RMK A01 T00080008  RH  100%=      5-min Rain = 0
KAM3 091329Z 26008KT 01/01 A3023 RMK A01 T00080008  RH  100%=      5-min Rain = 0
KAM3 091330Z 26009KT 01/01 A3023 RMK A01 T00080008  RH  100%=      5-min Rain = 0
KAM3 091331Z 26008KT 01/01 A3023 RMK A01 T00080008  RH  100%=      5-min Rain = 0
KAM3 091332Z 26009KT 01/01 A3023 RMK A01 T00080008  RH  100%=      5-min Rain = 0
KAM3 091333Z 26009KT 01/01 A3023 RMK A01 T00090009  RH  100%=      5-min Rain = 0
KAM3 091334Z 26009KT 01/01 A3023 RMK A01 T00090009  RH  100%=      5-min Rain = 0
KAM3 091335Z 26009KT 01/01 A3023 RMK A01 T00100010  RH  100%=      5-min Rain = 0
KAM3 091336Z 26009KT 01/01 A3023 RMK A01 T00100010  RH  100%=      5-min Rain = 0
KAM3 091337Z 26009KT 01/01 A3023 RMK A01 T00110011  RH  100%=      5-min Rain = 0
KAM3 091338Z 26009KT 01/01 A3023 RMK A01 T00110011  RH  100%=      5-min Rain = 0
KAM3 091339Z 26009KT 01/01 A3023 RMK A01 T00110011  RH  100%=      5-min Rain = 0
KAM3 091340Z 26008KT 01/01 A3023 RMK A01 T00120012  RH  100%=      5-min Rain = 0
KAM3 091341Z 26009KT 01/01 A3023 RMK A01 T00120012  RH  100%=      5-min Rain = 0
KAM3 091342Z 26008KT 01/01 A3023 RMK A01 T00130012  RH  100%=      5-min Rain = 0
KAM3 091343Z 26009KT 01/01 A3023 RMK A01 T00130012  RH  100%=      5-min Rain = 0
KAM3 091344Z 26009KT 01/01 A3023 RMK A01 T00130013  RH  100%=      5-min Rain = 0
KAM3 091345Z 26008KT 01/01 A3023 RMK A01 T00130013  RH  100%=      5-min Rain = 0
KAM3 091346Z 26009KT 01/01 A3023 RMK A01 T00130013  RH  100%=      5-min Rain = 0
KAM3 091347Z 26009KT 01/01 A3023 RMK A01 T00130013  RH  100%=      5-min Rain = 0
KAM3 091348Z 26009KT 01/01 A3023 RMK A01 T00130013  RH  100%=      5-min Rain = 0
KAM3 091349Z 26008KT 01/01 A3023 RMK A01 T00140014  RH  100%=      5-min Rain = 0
KAM3 091350Z 26008KT 01/01 A3023 RMK A01 T00140014  RH  100%=      5-min Rain = 0
KAM3 091351Z 26009KT 01/01 A3023 RMK A01 T00140014  RH  100%=      5-min Rain = 0
KAM3 091352Z 26008KT 02/02 A3023 RMK A01 T00150015  RH  100%=      5-min Rain = 0
KAM3 091353Z 26008KT 02/02 A3023 RMK A01 T00150015  RH  100%=      5-min Rain = 0
KAM3 091354Z 26008KT 02/02 A3023 RMK A01 T00160016  RH  100%=      5-min Rain = 0
KAM3 091355Z 26008KT 02/02 A3023 RMK A01 T00160016  RH  100%=      5-min Rain = 0
KAM3 091356Z 26008KT 02/02 A3023 RMK A01 T00160016  RH  100%=      5-min Rain = 0
KAM3 091357Z 26008KT 02/02 A3023 RMK A01 T00160016  RH  100%=      5-min Rain = 0
KAM3 091358Z 26007KT 02/02 A3023 RMK A01 T00170016  RH  100%=      5-min Rain = 0
KAM3 091359Z 26008KT 02/02 A3023 RMK A01 T00170017  RH  100%=      5-min Rain = 0
KAM3 091400Z 26007KT 02/02 A3023 RMK A01 T00180017  RH  100%=      5-min Rain = 0
KAM3 091401Z 25007KT 02/02 A3023 RMK A01 T00180018  RH  100%=      5-min Rain = 0
KAM3 091402Z 25007KT 02/02 A3023 RMK A01 T00180018  RH  100%=      5-min Rain = 0
KAM3 091403Z 25007KT 02/02 A3023 RMK A01 T00190019  RH  100%=      5-min Rain = 0
KAM3 091404Z 25007KT 02/02 A3023 RMK A01 T00190019  RH  100%=      5-min Rain = 0
KAM3 091405Z 26007KT 02/02 A3023 RMK A01 T00200020  RH  100%=      5-min Rain = 0
KAM3 091406Z 25007KT 02/02 A3023 RMK A01 T00200020  RH  100%=      5-min Rain = 0
KAM3 091407Z 25007KT 02/02 A3023 RMK A01 T00210021  RH  100%=      5-min Rain = 0
KAM3 091408Z 26007KT 02/02 A3023 RMK A01 T00210021  RH  100%=      5-min Rain = 0
KAM3 091409Z 26008KT 02/02 A3023 RMK A01 T00220022  RH  100%=      5-min Rain = 0
KAM3 091410Z 26008KT 02/02 A3023 RMK A01 T00220022  RH  100%=      5-min Rain = 0
KAM3 091411Z 25008KT 02/02 A3023 RMK A01 T00220022  RH  100%=      5-min Rain = 0
KAM3 091412Z 26007KT 02/02 A3023 RMK A01 T00230023  RH  100%=      5-min Rain = 0
KAM3 091413Z 26008KT 02/02 A3023 RMK A01 T00230023  RH  100%=      5-min Rain = 0
KAM3 091414Z 26007KT 02/02 A3023 RMK A01 T00230023  RH  100%=      5-min Rain = 0
KAM3 091415Z 26008KT 02/02 A3023 RMK A01 T00240024  RH  100%=      5-min Rain = 0
KAM3 091416Z 26009KT 02/02 A3023 RMK A01 T00240024  RH  100%=      5-min Rain = 0
KAM3 091417Z 26008KT 03/03 A3023 RMK A01 T00250025  RH  100%=      5-min Rain = 0
KAM3 091418Z 26008KT 03/03 A3023 RMK A01 T00250025  RH  100%=      5-min Rain = 0
KAM3 091419Z 26008KT 03/03 A3023 RMK A01 T00260026  RH  100%=      5-min Rain = 0
KAM3 091420Z 26009KT 03/03 A3023 RMK A01 T00270026  RH  100%=      5-min Rain = 0
KAM3 091421Z 26008KT 03/03 A3023 RMK A01 T00270027  RH  100%=      5-min Rain = 0
KAM3 091422Z 26009KT 03/03 A3023 RMK A01 T00270027  RH  100%=      5-min Rain = 0
KAM3 091423Z 26009KT 03/03 A3023 RMK A01 T00280028  RH  100%=      5-min Rain = 0
KAM3 091424Z 27009KT 03/03 A3023 RMK A01 T00280028  RH  100%=      5-min Rain = 0
KAM3 091425Z 27008KT 03/03 A3023 RMK A01 T00290029  RH  100%=      5-min Rain = 0
KAM3 091426Z 26008KT 03/03 A3024 RMK A01 T00300030  RH  100%=      5-min Rain = 0
KAM3 091427Z 26009KT 03/03 A3024 RMK A01 T00310030  RH  100%=      5-min Rain = 0
KAM3 091428Z 26009KT 03/03 A3024 RMK A01 T00310031  RH  100%=      5-min Rain = 0
KAM3 091429Z 26008KT 03/03 A3024 RMK A01 T00310031  RH  100%=      5-min Rain = 0
KAM3 091430Z 26007KT 03/03 A3024 RMK A01 T00320032  RH  100%=      5-min Rain = 0
KAM3 091431Z 26010KT 03/03 A3024 RMK A01 T00330033  RH  100%=      5-min Rain = 0
KAM3 091432Z 26009KT 03/03 A3024 RMK A01 T00340034  RH  100%=      5-min Rain = 0
KAM3 091433Z 26007KT 03/03 A3024 RMK A01 T00340034  RH  100%=      5-min Rain = 0
KAM3 091434Z 27008KT 04/04 A3024 RMK A01 T00350035  RH  100%=      5-min Rain = 0
KAM3 091435Z 26007KT 04/04 A3024 RMK A01 T00350035  RH  100%=      5-min Rain = 0
KAM3 091436Z 27009KT 04/04 A3024 RMK A01 T00360036  RH  100%=      5-min Rain = 0
KAM3 091437Z 27008KT 04/04 A3024 RMK A01 T00360036  RH  100%=      5-min Rain = 0
KAM3 091438Z 27008KT 04/04 A3024 RMK A01 T00370037  RH  100%=      5-min Rain = 0
KAM3 091439Z 27009KT 04/04 A3024 RMK A01 T00370037  RH  100%=      5-min Rain = 0
KAM3 091440Z 28009KT 04/04 A3024 RMK A01 T00380038  RH  100%=      5-min Rain = 0
KAM3 091441Z 27009KT 04/04 A3024 RMK A01 T00380037  RH  100%=      5-min Rain = 0
KAM3 091442Z 27008KT 04/04 A3024 RMK A01 T00380038  RH  100%=      5-min Rain = 0
KAM3 091443Z 28007KT 04/04 A3024 RMK A01 T00390039  RH  100%=      5-min Rain = 0
KAM3 091444Z 28010KT 04/04 A3024 RMK A01 T00400040  RH  100%=      5-min Rain = 0
KAM3 091445Z 28009KT 04/04 A3024 RMK A01 T00400040  RH  100%=      5-min Rain = 0
KAM3 091446Z 28008KT 04/04 A3024 RMK A01 T00400040  RH  100%=      5-min Rain = 0
KAM3 091447Z 27009KT 04/04 A3024 RMK A01 T00400040  RH  100%=      5-min Rain = 0
KAM3 091448Z 28010KT 04/04 A3024 RMK A01 T00410041  RH  100%=      5-min Rain = 0
KAM3 091449Z 28010KT 04/04 A3024 RMK A01 T00410041  RH  100%=      5-min Rain = 0
KAM3 091450Z 28010KT 04/04 A3024 RMK A01 T00410041  RH  100%=      5-min Rain = 0
KAM3 091451Z 27010KT 04/04 A3024 RMK A01 T00410041  RH  100%=      5-min Rain = 0
KAM3 091452Z 27010KT 04/04 A3024 RMK A01 T00410041  RH  100%=      5-min Rain = 0
KAM3 091453Z 27009KT 04/04 A3024 RMK A01 T00410041  RH  100%=      5-min Rain = 0
KAM3 091454Z 27009KT 04/04 A3024 RMK A01 T00420042  RH  100%=      5-min Rain = 0
KAM3 091455Z 27010KT 04/04 A3024 RMK A01 T00420042  RH  100%=      5-min Rain = 0
KAM3 091456Z 27009KT 04/04 A3024 RMK A01 T00430043  RH  100%=      5-min Rain = 0
KAM3 091457Z 27009KT 04/04 A3024 RMK A01 T00440043  RH  100%=      5-min Rain = 0
KAM3 091458Z 27009KT 04/04 A3024 RMK A01 T00440044  RH  100%=      5-min Rain = 0
KAM3 091459Z 27009KT 05/05 A3024 RMK A01 T00450045  RH  100%=      5-min Rain = 0
KAM3 091500Z 27009KT 05/05 A3024 RMK A01 T00460046  RH  100%=      5-min Rain = 0
KAM3 091501Z 27009KT 05/05 A3024 RMK A01 T00470047  RH  100%=      5-min Rain = 0
KAM3 091502Z 27009KT 05/05 A3024 RMK A01 T00470047  RH  100%=      5-min Rain = 0
KAM3 091503Z 28009KT 05/05 A3024 RMK A01 T00480048  RH  100%=      5-min Rain = 0
KAM3 091504Z 28009KT 05/05 A3024 RMK A01 T00490048  RH  100%=      5-min Rain = 0
KAM3 091505Z 28010KT 05/05 A3024 RMK A01 T00490047  RH  098%=      5-min Rain = 0
KAM3 091506Z 28010KT 05/04 A3025 RMK A01 T00490044  RH  096%=      5-min Rain = 0
KAM3 091507Z 28009KT 05/05 A3025 RMK A01 T00490045  RH  097%=      5-min Rain = 0
KAM3 091508Z 28009KT 05/04 A3024 RMK A01 T00490043  RH  096%=      5-min Rain = 0
KAM3 091509Z 28008KT 05/04 A3024 RMK A01 T00490044  RH  096%=      5-min Rain = 0
KAM3 091510Z 28009KT 05/05 A3024 RMK A01 T00500046  RH  098%=      5-min Rain = 0
KAM3 091511Z 28009KT 05/05 A3024 RMK A01 T00510047  RH  098%=      5-min Rain = 0
KAM3 091512Z 27008KT 05/05 A3024 RMK A01 T00510046  RH  096%=      5-min Rain = 0
KAM3 091513Z 27006KT 05/05 A3024 RMK A01 T00520049  RH  098%=      5-min Rain = 0
KAM3 091514Z 27007KT 05/05 A3024 RMK A01 T00540053  RH  099%=      5-min Rain = 0
KAM3 091515Z 27008KT 06/05 A3024 RMK A01 T00550052  RH  098%=      5-min Rain = 0
KAM3 091516Z 28007KT 06/05 A3024 RMK A01 T00550050  RH  096%=      5-min Rain = 0
KAM3 091517Z 28008KT 06/05 A3024 RMK A01 T00560052  RH  097%=      5-min Rain = 0
KAM3 091518Z 28008KT 06/05 A3024 RMK A01 T00560051  RH  096%=      5-min Rain = 0
KAM3 091519Z 28008KT 06/05 A3024 RMK A01 T00560048  RH  095%=      5-min Rain = 0
KAM3 091520Z 28008KT 06/05 A3024 RMK A01 T00570049  RH  095%=      5-min Rain = 0
KAM3 091521Z 28007KT 06/05 A3024 RMK A01 T00570050  RH  096%=      5-min Rain = 0
KAM3 091522Z 28007KT 06/05 A3024 RMK A01 T00580054  RH  097%=      5-min Rain = 0
KAM3 091523Z 28007KT 06/05 A3024 RMK A01 T00590050  RH  094%=      5-min Rain = 0
KAM3 091524Z 27006KT 06/05 A3024 RMK A01 T00590053  RH  096%=      5-min Rain = 0
KAM3 091525Z 27006KT 06/05 A3024 RMK A01 T00610053  RH  095%=      5-min Rain = 0
KAM3 091526Z 27006KT 06/05 A3024 RMK A01 T00620053  RH  094%=      5-min Rain = 0
KAM3 091527Z 27006KT 06/05 A3024 RMK A01 T00620052  RH  093%=      5-min Rain = 0
KAM3 091528Z 27006KT 06/05 A3024 RMK A01 T00620050  RH  092%=      5-min Rain = 0
KAM3 091529Z 25008KT 06/05 A3024 RMK A01 T00620052  RH  093%=      5-min Rain = 0
KAM3 091530Z 26008KT 06/05 A3024 RMK A01 T00630051  RH  092%=      5-min Rain = 0
KAM3 091531Z 26008KT 06/05 A3024 RMK A01 T00630051  RH  092%=      5-min Rain = 0
KAM3 091532Z 26007KT 06/05 A3024 RMK A01 T00640052  RH  092%=      5-min Rain = 0
KAM3 091533Z 27006KT 07/05 A3024 RMK A01 T00650053  RH  092%=      5-min Rain = 0
KAM3 091534Z 27006KT 07/05 A3024 RMK A01 T00660054  RH  092%=      5-min Rain = 0
KAM3 091535Z 28006KT 07/06 A3024 RMK A01 T00670056  RH  093%=      5-min Rain = 0
KAM3 091536Z 28006KT 07/05 A3024 RMK A01 T00670052  RH  090%=      5-min Rain = 0
KAM3 091537Z 27007KT 07/05 A3024 RMK A01 T00670053  RH  090%=      5-min Rain = 0
KAM3 091538Z 27007KT 07/05 A3024 RMK A01 T00670054  RH  091%=      5-min Rain = 0
KAM3 091539Z 26006KT 07/05 A3024 RMK A01 T00680054  RH  091%=      5-min Rain = 0
KAM3 091540Z 26006KT 07/06 A3024 RMK A01 T00690056  RH  091%=      5-min Rain = 0
KAM3 091541Z 27005KT 07/06 A3024 RMK A01 T00700056  RH  091%=      5-min Rain = 0
KAM3 091542Z 28006KT 07/05 A3024 RMK A01 T00710054  RH  089%=      5-min Rain = 0
KAM3 091543Z 29006KT 07/05 A3025 RMK A01 T00710053  RH  089%=      5-min Rain = 0
KAM3 091544Z 27006KT 07/06 A3024 RMK A01 T00710056  RH  090%=      5-min Rain = 0
KAM3 091545Z 27005KT 07/06 A3024 RMK A01 T00720055  RH  089%=      5-min Rain = 0
KAM3 091546Z 27006KT 07/06 A3024 RMK A01 T00740061  RH  091%=      5-min Rain = 0
KAM3 091547Z 27005KT 08/06 A3024 RMK A01 T00750055  RH  087%=      5-min Rain = 0
KAM3 091548Z 27007KT 08/06 A3024 RMK A01 T00760056  RH  087%=      5-min Rain = 0
KAM3 091549Z 27006KT 08/06 A3024 RMK A01 T00770055  RH  086%=      5-min Rain = 0
KAM3 091550Z 27005KT 08/06 A3024 RMK A01 T00770055  RH  086%=      5-min Rain = 0
KAM3 091551Z 28006KT 08/06 A3024 RMK A01 T00790059  RH  087%=      5-min Rain = 0
KAM3 091552Z 27007KT 08/06 A3024 RMK A01 T00800055  RH  084%=      5-min Rain = 0
KAM3 091553Z 28007KT 08/05 A3024 RMK A01 T00800053  RH  083%=      5-min Rain = 0
KAM3 091554Z 28007KT 08/05 A3024 RMK A01 T00790051  RH  082%=      5-min Rain = 0
KAM3 091555Z 28008KT 08/05 A3024 RMK A01 T00790053  RH  084%=      5-min Rain = 0
KAM3 091556Z 28008KT 08/05 A3024 RMK A01 T00790053  RH  083%=      5-min Rain = 0
KAM3 091557Z 28008KT 08/05 A3024 RMK A01 T00800053  RH  083%=      5-min Rain = 0
KAM3 091558Z 27008KT 08/05 A3024 RMK A01 T00810054  RH  083%=      5-min Rain = 0
KAM3 091559Z 26008KT 08/05 A3024 RMK A01 T00820053  RH  082%=      5-min Rain = 0
KAM3 091600Z 27007KT 08/06 A3024 RMK A01 T00830055  RH  083%=      5-min Rain = 0
KAM3 091601Z 27006KT 09/06 A3024 RMK A01 T00850056  RH  082%=      5-min Rain = 0
KAM3 091602Z 28007KT 09/06 A3024 RMK A01 T00870056  RH  081%=      5-min Rain = 0
KAM3 091603Z 28007KT 09/06 A3024 RMK A01 T00870055  RH  081%=      5-min Rain = 0
KAM3 091604Z 28008KT 09/06 A3024 RMK A01 T00880055  RH  080%=      5-min Rain = 0
KAM3 091605Z 28007KT 09/06 A3024 RMK A01 T00880055  RH  079%=      5-min Rain = 0
KAM3 091606Z 28007KT 09/05 A3024 RMK A01 T00880054  RH  079%=      5-min Rain = 0
KAM3 091607Z 28006KT 09/06 A3024 RMK A01 T00890057  RH  080%=      5-min Rain = 0
KAM3 091608Z 28008KT 09/06 A3024 RMK A01 T00910055  RH  078%=      5-min Rain = 0
KAM3 091609Z 27008KT 09/05 A3024 RMK A01 T00900053  RH  077%=      5-min Rain = 0
KAM3 091610Z 26007KT 09/05 A3024 RMK A01 T00900053  RH  078%=      5-min Rain = 0
KAM3 091611Z 27006KT 09/06 A3024 RMK A01 T00910055  RH  078%=      5-min Rain = 0
KAM3 091612Z 27006KT 09/06 A3024 RMK A01 T00930055  RH  078%=      5-min Rain = 0
KAM3 091613Z 26006KT 10/06 A3024 RMK A01 T00950056  RH  077%=      5-min Rain = 0
KAM3 091614Z 28006KT 10/06 A3024 RMK A01 T00970057  RH  076%=      5-min Rain = 0
KAM3 091615Z 29006KT 10/06 A3024 RMK A01 T00980055  RH  075%=      5-min Rain = 0
KAM3 091616Z 26006KT 10/06 A3024 RMK A01 T00980055  RH  075%=      5-min Rain = 0
KAM3 091617Z 26006KT 10/05 A3024 RMK A01 T00980054  RH  074%=      5-min Rain = 0
KAM3 091618Z 29006KT 10/06 A3024 RMK A01 T00990056  RH  075%=      5-min Rain = 0
KAM3 091619Z 27006KT 10/06 A3024 RMK A01 T01000056  RH  074%=      5-min Rain = 0
KAM3 091620Z 27006KT 10/06 A3024 RMK A01 T01010055  RH  073%=      5-min Rain = 0
KAM3 091621Z 27007KT 10/06 A3024 RMK A01 T01010055  RH  073%=      5-min Rain = 0
KAM3 091622Z 27006KT 10/05 A3024 RMK A01 T01010053  RH  072%=      5-min Rain = 0
KAM3 091623Z 26005KT 10/05 A3024 RMK A01 T01000054  RH  073%=      5-min Rain = 0
KAM3 091624Z 27005KT 10/06 A3024 RMK A01 T01020056  RH  073%=      5-min Rain = 0
KAM3 091625Z 29005KT 10/06 A3024 RMK A01 T01040056  RH  072%=      5-min Rain = 0
KAM3 091626Z 30007KT 11/06 A3024 RMK A01 T01060057  RH  072%=      5-min Rain = 0
KAM3 091627Z 28007KT 11/05 A3024 RMK A01 T01080054  RH  070%=      5-min Rain = 0
KAM3 091628Z 27005KT 11/05 A3024 RMK A01 T01070053  RH  070%=      5-min Rain = 0
KAM3 091629Z 27005KT 11/05 A3024 RMK A01 T01070054  RH  070%=      5-min Rain = 0
KAM3 091630Z 30005KT 11/06 A3024 RMK A01 T01070055  RH  070%=      5-min Rain = 0
KAM3 091631Z 30005KT 11/06 A3024 RMK A01 T01080057  RH  071%=      5-min Rain = 0
KAM3 091632Z 29005KT 11/06 A3024 RMK A01 T01100057  RH  069%=      5-min Rain = 0
KAM3 091633Z 29004KT 11/06 A3023 RMK A01 T01110057  RH  069%=      5-min Rain = 0
KAM3 091634Z 29005KT 11/06 A3023 RMK A01 T01120058  RH  069%=      5-min Rain = 0
KAM3 091635Z 30005KT 11/06 A3023 RMK A01 T01140058  RH  068%=      5-min Rain = 0
KAM3 091636Z 29005KT 11/06 A3023 RMK A01 T01140056  RH  067%=      5-min Rain = 0
KAM3 091637Z 29006KT 11/06 A3023 RMK A01 T01140057  RH  068%=      5-min Rain = 0
KAM3 091638Z 29004KT 12/06 A3023 RMK A01 T01150056  RH  067%=      5-min Rain = 0
KAM3 091639Z 29005KT 12/06 A3023 RMK A01 T01160056  RH  067%=      5-min Rain = 0
KAM3 091640Z 30005KT 12/06 A3023 RMK A01 T01150055  RH  066%=      5-min Rain = 0
KAM3 091641Z 29004KT 12/06 A3023 RMK A01 T01160058  RH  067%=      5-min Rain = 0
KAM3 091642Z 29005KT 12/06 A3023 RMK A01 T01180057  RH  066%=      5-min Rain = 0
KAM3 091643Z 27005KT 12/06 A3023 RMK A01 T01180055  RH  065%=      5-min Rain = 0
KAM3 091644Z 27004KT 12/06 A3023 RMK A01 T01180055  RH  065%=      5-min Rain = 0
KAM3 091645Z 30005KT 12/06 A3023 RMK A01 T01180055  RH  065%=      5-min Rain = 0
KAM3 091646Z 28007KT 12/06 A3023 RMK A01 T01190056  RH  065%=      5-min Rain = 0
KAM3 091647Z 29005KT 12/06 A3023 RMK A01 T01210056  RH  064%=      5-min Rain = 0
KAM3 091648Z 29007KT 12/06 A3023 RMK A01 T01240057  RH  064%=      5-min Rain = 0
KAM3 091649Z 28006KT 12/06 A3023 RMK A01 T01240055  RH  063%=      5-min Rain = 0
KAM3 091650Z 29005KT 12/05 A3023 RMK A01 T01220054  RH  063%=      5-min Rain = 0
KAM3 091651Z 26006KT 12/06 A3023 RMK A01 T01230057  RH  064%=      5-min Rain = 0
KAM3 091652Z 27006KT 13/06 A3023 RMK A01 T01260058  RH  064%=      5-min Rain = 0
KAM3 091653Z 29005KT 13/06 A3023 RMK A01 T01290058  RH  062%=      5-min Rain = 0
KAM3 091654Z 29005KT 13/06 A3023 RMK A01 T01290058  RH  062%=      5-min Rain = 0
KAM3 091655Z 28004KT 13/06 A3023 RMK A01 T01300059  RH  062%=      5-min Rain = 0
KAM3 091656Z 27004KT 13/06 A3023 RMK A01 T01310058  RH  061%=      5-min Rain = 0
KAM3 091657Z 28006KT 13/06 A3023 RMK A01 T01310057  RH  061%=      5-min Rain = 0
KAM3 091658Z 28006KT 13/06 A3023 RMK A01 T01310056  RH  060%=      5-min Rain = 0
KAM3 091659Z 28004KT 13/06 A3023 RMK A01 T01300055  RH  060%=      5-min Rain = 0
KAM3 091700Z 29005KT 13/06 A3023 RMK A01 T01290056  RH  061%=      5-min Rain = 0
KAM3 091701Z 29006KT 13/06 A3023 RMK A01 T01300057  RH  061%=      5-min Rain = 0
KAM3 091702Z 29006KT 13/06 A3023 RMK A01 T01310056  RH  060%=      5-min Rain = 0
KAM3 091703Z 28006KT 13/06 A3023 RMK A01 T01320057  RH  060%=      5-min Rain = 0
KAM3 091704Z 27004KT 13/06 A3023 RMK A01 T01330057  RH  060%=      5-min Rain = 0
KAM3 091705Z 28005KT 13/06 A3023 RMK A01 T01340057  RH  060%=      5-min Rain = 0
KAM3 091706Z 28006KT 14/06 A3022 RMK A01 T01350057  RH  059%=      5-min Rain = 0
KAM3 091707Z 25006KT 14/06 A3022 RMK A01 T01360057  RH  059%=      5-min Rain = 0
KAM3 091708Z 25008KT 14/06 A3022 RMK A01 T01370057  RH  058%=      5-min Rain = 0
KAM3 091709Z 29007KT 14/06 A3022 RMK A01 T01400057  RH  057%=      5-min Rain = 0
KAM3 091710Z 29006KT 14/06 A3022 RMK A01 T01410056  RH  056%=      5-min Rain = 0
KAM3 091711Z 28006KT 14/06 A3022 RMK A01 T01410057  RH  057%=      5-min Rain = 0
KAM3 091712Z 27006KT 14/06 A3022 RMK A01 T01420057  RH  056%=      5-min Rain = 0
KAM3 091713Z 26005KT 14/06 A3022 RMK A01 T01420056  RH  056%=      5-min Rain = 0
KAM3 091714Z 27006KT 14/06 A3022 RMK A01 T01420057  RH  057%=      5-min Rain = 0
KAM3 091715Z 28006KT 14/06 A3022 RMK A01 T01420057  RH  056%=      5-min Rain = 0
KAM3 091716Z 28004KT 14/06 A3022 RMK A01 T01440057  RH  056%=      5-min Rain = 0
KAM3 091717Z 28004KT 15/06 A3022 RMK A01 T01450057  RH  055%=      5-min Rain = 0
KAM3 091718Z 28006KT 15/06 A3022 RMK A01 T01460057  RH  055%=      5-min Rain = 0
KAM3 091719Z 29006KT 15/06 A3022 RMK A01 T01470057  RH  055%=      5-min Rain = 0
KAM3 091720Z 29006KT 15/06 A3022 RMK A01 T01490056  RH  054%=      5-min Rain = 0
KAM3 091721Z 29005KT 15/06 A3022 RMK A01 T01490056  RH  054%=      5-min Rain = 0
KAM3 091722Z 30006KT 15/06 A3022 RMK A01 T01500056  RH  053%=      5-min Rain = 0
KAM3 091723Z 30007KT 15/06 A3022 RMK A01 T01520056  RH  053%=      5-min Rain = 0
KAM3 091724Z 28007KT 15/06 A3022 RMK A01 T01530056  RH  052%=      5-min Rain = 0
KAM3 091725Z 28007KT 15/06 A3022 RMK A01 T01530056  RH  052%=      5-min Rain = 0
KAM3 091726Z 28006KT 15/05 A3021 RMK A01 T01540054  RH  051%=      5-min Rain = 0
KAM3 091727Z 28006KT 16/06 A3021 RMK A01 T01560058  RH  052%=      5-min Rain = 0
KAM3 091728Z 27006KT 16/06 A3021 RMK A01 T01590058  RH  051%=      5-min Rain = 0
KAM3 091729Z 28005KT 16/06 A3021 RMK A01 T01590057  RH  051%=      5-min Rain = 0
KAM3 091730Z 27004KT 16/06 A3021 RMK A01 T01590057  RH  051%=      5-min Rain = 0
KAM3 091731Z 28006KT 16/06 A3021 RMK A01 T01580057  RH  051%=      5-min Rain = 0
KAM3 091732Z 27006KT 16/06 A3021 RMK A01 T01580057  RH  051%=      5-min Rain = 0
KAM3 091733Z 27004KT 16/06 A3021 RMK A01 T01590055  RH  050%=      5-min Rain = 0
KAM3 091734Z 29005KT 16/06 A3021 RMK A01 T01590056  RH  050%=      5-min Rain = 0
KAM3 091735Z 29006KT 16/06 A3021 RMK A01 T01600057  RH  050%=      5-min Rain = 0
KAM3 091736Z 29005KT 16/06 A3021 RMK A01 T01610058  RH  050%=      5-min Rain = 0
KAM3 091737Z 28005KT 16/06 A3021 RMK A01 T01620058  RH  050%=      5-min Rain = 0
KAM3 091738Z 27007KT 16/06 A3021 RMK A01 T01640056  RH  049%=      5-min Rain = 0
KAM3 091739Z 26006KT 16/06 A3021 RMK A01 T01640056  RH  049%=      5-min Rain = 0
KAM3 091740Z 27006KT 16/06 A3021 RMK A01 T01640056  RH  049%=      5-min Rain = 0
KAM3 091741Z 27005KT 17/06 A3021 RMK A01 T01660057  RH  049%=      5-min Rain = 0
KAM3 091742Z 25006KT 17/06 A3021 RMK A01 T01670057  RH  048%=      5-min Rain = 0
KAM3 091743Z 27005KT 17/06 A3021 RMK A01 T01680056  RH  048%=      5-min Rain = 0
KAM3 091744Z 29005KT 17/06 A3021 RMK A01 T01690058  RH  048%=      5-min Rain = 0
KAM3 091745Z 31004KT 17/06 A3021 RMK A01 T01700056  RH  047%=      5-min Rain = 0
KAM3 091746Z 30003KT 17/06 A3021 RMK A01 T01700058  RH  048%=      5-min Rain = 0
KAM3 091747Z 33002KT 17/06 A3021 RMK A01 T01710057  RH  047%=      5-min Rain = 0
KAM3 091748Z 31004KT 17/06 A3021 RMK A01 T01720058  RH  047%=      5-min Rain = 0
KAM3 091749Z 32004KT 17/06 A3021 RMK A01 T01730058  RH  047%=      5-min Rain = 0
KAM3 091750Z 29005KT 17/06 A302 RMK A01 T01740058  RH  046%=      5-min Rain = 0
KAM3 091751Z 29005KT 18/06 A302 RMK A01 T01760055  RH  045%=      5-min Rain = 0
KAM3 091752Z 27005KT 18/06 A302 RMK A01 T01760055  RH  045%=      5-min Rain = 0
KAM3 091753Z 25002KT 18/06 A302 RMK A01 T01760055  RH  045%=      5-min Rain = 0
KAM3 091754Z 22002KT 18/06 A302 RMK A01 T01760058  RH  046%=      5-min Rain = 0
KAM3 091755Z 27002KT 18/06 A302 RMK A01 T01800057  RH  044%=      5-min Rain = 0
KAM3 091756Z 30004KT 18/06 A302 RMK A01 T01820058  RH  044%=      5-min Rain = 0
KAM3 091757Z 31004KT 18/06 A302 RMK A01 T01830057  RH  043%=      5-min Rain = 0
KAM3 091758Z 30001KT 18/06 A302 RMK A01 T01820055  RH  043%=      5-min Rain = 0
KAM3 091759Z 29004KT 18/06 A302 RMK A01 T01810056  RH  044%=      5-min Rain = 0
KAM3 091800Z 28005KT 18/05 A302 RMK A01 T01810051  RH  042%=      5-min Rain = 0
KAM3 091801Z 27005KT 18/05 A302 RMK A01 T01810054  RH  043%=      5-min Rain = 0
KAM3 091802Z 27005KT 18/05 A302 RMK A01 T01830054  RH  043%=      5-min Rain = 0
KAM3 091803Z 25002KT 18/05 A302 RMK A01 T01840054  RH  043%=      5-min Rain = 0
KAM3 091804Z 28003KT 18/05 A302 RMK A01 T01830054  RH  043%=      5-min Rain = 0
KAM3 091805Z 29002KT 18/06 A302 RMK A01 T01830057  RH  043%=      5-min Rain = 0
KAM3 091806Z 25002KT 19/06 A302 RMK A01 T01860058  RH  043%=      5-min Rain = 0
KAM3 091807Z 30002KT 19/06 A3019 RMK A01 T01870057  RH  042%=      5-min Rain = 0
KAM3 091808Z 28002KT 19/06 A3019 RMK A01 T01870055  RH  042%=      5-min Rain = 0
KAM3 091809Z 28004KT 19/06 A3019 RMK A01 T01870056  RH  042%=      5-min Rain = 0
KAM3 091810Z 28006KT 19/06 A3019 RMK A01 T01880056  RH  042%=      5-min Rain = 0
KAM3 091811Z 27004KT 19/06 A3019 RMK A01 T01880055  RH  042%=      5-min Rain = 0
KAM3 091812Z 26001KT 19/06 A3019 RMK A01 T01870055  RH  042%=      5-min Rain = 0
KAM3 091813Z 00001KT 19/05 A3019 RMK A01 T01870053  RH  041%=      5-min Rain = 0
KAM3 091814Z 00001KT 19/05 A3019 RMK A01 T01860054  RH  042%=      5-min Rain = 0
KAM3 091815Z 31003KT 19/06 A3019 RMK A01 T01870055  RH  042%=      5-min Rain = 0
KAM3 091816Z 33003KT 19/05 A3019 RMK A01 T01870054  RH  042%=      5-min Rain = 0
KAM3 091817Z 34002KT 19/06 A3019 RMK A01 T01880058  RH  043%=      5-min Rain = 0
KAM3 091818Z 31003KT 19/06 A3019 RMK A01 T01910058  RH  042%=      5-min Rain = 0
KAM3 091819Z 32004KT 19/06 A3019 RMK A01 T01920057  RH  041%=      5-min Rain = 0
KAM3 091820Z 33002KT 19/06 A3019 RMK A01 T01920056  RH  041%=      5-min Rain = 0
KAM3 091821Z 32004KT 19/06 A3019 RMK A01 T01920055  RH  041%=      5-min Rain = 0
KAM3 091822Z 31003KT 19/06 A3019 RMK A01 T01920056  RH  041%=      5-min Rain = 0
KAM3 091823Z 30003KT 19/06 A3018 RMK A01 T01940056  RH  040%=      5-min Rain = 0
KAM3 091824Z 27003KT 20/06 A3018 RMK A01 T01950056  RH  040%=      5-min Rain = 0
KAM3 091825Z 27004KT 20/06 A3018 RMK A01 T01960057  RH  040%=      5-min Rain = 0
KAM3 091826Z 27004KT 20/06 A3018 RMK A01 T01980059  RH  040%=      5-min Rain = 0
KAM3 091827Z 29004KT 20/06 A3018 RMK A01 T01990056  RH  039%=      5-min Rain = 0
KAM3 091828Z 31004KT 20/06 A3018 RMK A01 T01980056  RH  039%=      5-min Rain = 0
KAM3 091829Z 27004KT 20/06 A3018 RMK A01 T01980057  RH  040%=      5-min Rain = 0
KAM3 091830Z 26002KT 20/05 A3018 RMK A01 T02000054  RH  039%=      5-min Rain = 0
KAM3 091831Z 26003KT 20/06 A3018 RMK A01 T02000056  RH  039%=      5-min Rain = 0
KAM3 091832Z 23001KT 20/06 A3018 RMK A01 T01990057  RH  039%=      5-min Rain = 0
KAM3 091833Z 32002KT 20/06 A3018 RMK A01 T02000056  RH  039%=      5-min Rain = 0
KAM3 091834Z 28003KT 20/06 A3017 RMK A01 T02000055  RH  039%=      5-min Rain = 0
KAM3 091835Z 28002KT 20/06 A3017 RMK A01 T02000057  RH  039%=      5-min Rain = 0
KAM3 091836Z 20002KT 20/06 A3017 RMK A01 T02020057  RH  039%=      5-min Rain = 0
KAM3 091837Z 22002KT 21/06 A3017 RMK A01 T02050056  RH  038%=      5-min Rain = 0
KAM3 091838Z 21004KT 21/05 A3017 RMK A01 T02070054  RH  037%=      5-min Rain = 0
KAM3 091839Z 21004KT 21/05 A3017 RMK A01 T02090051  RH  036%=      5-min Rain = 0
KAM3 091840Z 23003KT 21/05 A3017 RMK A01 T02090053  RH  036%=      5-min Rain = 0
KAM3 091841Z 26002KT 21/06 A3017 RMK A01 T02100056  RH  037%=      5-min Rain = 0
KAM3 091842Z 28002KT 21/06 A3017 RMK A01 T02110057  RH  037%=      5-min Rain = 0
KAM3 091843Z 28002KT 21/06 A3017 RMK A01 T02110058  RH  037%=      5-min Rain = 0
KAM3 091844Z 27003KT 21/06 A3017 RMK A01 T02110058  RH  037%=      5-min Rain = 0
KAM3 091845Z 23005KT 21/05 A3017 RMK A01 T02120054  RH  036%=      5-min Rain = 0
KAM3 091846Z 22004KT 21/05 A3017 RMK A01 T02120053  RH  035%=      5-min Rain = 0
KAM3 091847Z 20002KT 21/05 A3016 RMK A01 T02130051  RH  035%=      5-min Rain = 0
KAM3 091848Z 20002KT 21/05 A3016 RMK A01 T02140051  RH  034%=      5-min Rain = 0
KAM3 091849Z 23002KT 22/05 A3016 RMK A01 T02150045  RH  033%=      5-min Rain = 0
KAM3 091850Z 24002KT 22/05 A3016 RMK A01 T02160049  RH  034%=      5-min Rain = 0
KAM3 091851Z 26004KT 22/05 A3016 RMK A01 T02180051  RH  034%=      5-min Rain = 0
KAM3 091852Z 26005KT 22/05 A3016 RMK A01 T02200051  RH  033%=      5-min Rain = 0
KAM3 091853Z 25004KT 22/05 A3016 RMK A01 T02200052  RH  034%=      5-min Rain = 0
KAM3 091854Z 21006KT 22/05 A3016 RMK A01 T02210052  RH  033%=      5-min Rain = 0
KAM3 091855Z 24004KT 22/05 A3016 RMK A01 T02220051  RH  033%=      5-min Rain = 0
KAM3 091856Z 25004KT 22/05 A3016 RMK A01 T02230053  RH  033%=      5-min Rain = 0
KAM3 091857Z 20004KT 22/05 A3016 RMK A01 T02240052  RH  033%=      5-min Rain = 0
KAM3 091858Z 21005KT 23/05 A3016 RMK A01 T02250052  RH  032%=      5-min Rain = 0
KAM3 091859Z 24005KT 23/05 A3016 RMK A01 T02250046  RH  031%=      5-min Rain = 0
KAM3 091900Z 23007KT 23/04 A3015 RMK A01 T02260044  RH  031%=      5-min Rain = 0
KAM3 091901Z 22005KT 23/05 A3015 RMK A01 T02250045  RH  031%=      5-min Rain = 0
KAM3 091902Z 21006KT 22/05 A3015 RMK A01 T02230045  RH  031%=      5-min Rain = 0
KAM3 091903Z 21005KT 22/05 A3015 RMK A01 T02220046  RH  032%=      5-min Rain = 0
KAM3 091904Z 17004KT 22/05 A3015 RMK A01 T02210046  RH  032%=      5-min Rain = 0
KAM3 091905Z 16004KT 22/05 A3015 RMK A01 T02200046  RH  032%=      5-min Rain = 0
KAM3 091906Z 17005KT 22/05 A3015 RMK A01 T02230047  RH  032%=      5-min Rain = 0
KAM3 091907Z 16003KT 23/05 A3015 RMK A01 T02250046  RH  031%=      5-min Rain = 0
KAM3 091908Z 14003KT 23/05 A3015 RMK A01 T02250046  RH  031%=      5-min Rain = 0
KAM3 091909Z 19003KT 23/05 A3015 RMK A01 T02250048  RH  032%=      5-min Rain = 0
KAM3 091910Z 17003KT 23/05 A3015 RMK A01 T02250046  RH  031%=      5-min Rain = 0
KAM3 091911Z 20005KT 23/05 A3015 RMK A01 T02270047  RH  031%=      5-min Rain = 0
KAM3 091912Z 20003KT 23/05 A3015 RMK A01 T02280048  RH  031%=      5-min Rain = 0
KAM3 091913Z 22005KT 23/05 A3015 RMK A01 T02280049  RH  031%=      5-min Rain = 0
KAM3 091914Z 21004KT 23/05 A3015 RMK A01 T02290046  RH  030%=      5-min Rain = 0
KAM3 091915Z 22003KT 23/05 A3014 RMK A01 T02280045  RH  030%=      5-min Rain = 0
KAM3 091916Z 22002KT 23/05 A3014 RMK A01 T02260046  RH  031%=      5-min Rain = 0
KAM3 091917Z 21004KT 23/05 A3014 RMK A01 T02270050  RH  032%=      5-min Rain = 0
KAM3 091918Z 20004KT 23/05 A3014 RMK A01 T02290049  RH  031%=      5-min Rain = 0
KAM3 091919Z 27001KT 23/05 A3014 RMK A01 T02290048  RH  031%=      5-min Rain = 0
KAM3 091920Z 35000KT 23/05 A3014 RMK A01 T02280050  RH  031%=      5-min Rain = 0
KAM3 091921Z 12003KT 23/05 A3014 RMK A01 T02290048  RH  031%=      5-min Rain = 0
KAM3 091922Z 14004KT 23/05 A3014 RMK A01 T02290048  RH  031%=      5-min Rain = 0
KAM3 091923Z 14004KT 23/05 A3014 RMK A01 T02290051  RH  032%=      5-min Rain = 0
KAM3 091924Z 14002KT 23/05 A3014 RMK A01 T02300049  RH  031%=      5-min Rain = 0
KAM3 091925Z 15004KT 23/05 A3014 RMK A01 T02320052  RH  031%=      5-min Rain = 0
KAM3 091926Z 14002KT 23/05 A3014 RMK A01 T02340050  RH  030%=      5-min Rain = 0
KAM3 091927Z 08002KT 23/05 A3013 RMK A01 T02340049  RH  030%=      5-min Rain = 0
KAM3 091928Z 17002KT 23/05 A3013 RMK A01 T02320052  RH  031%=      5-min Rain = 0
KAM3 091929Z 18006KT 24/05 A3013 RMK A01 T02350051  RH  030%=      5-min Rain = 0
KAM3 091930Z 17005KT 24/05 A3013 RMK A01 T02370047  RH  029%=      5-min Rain = 0
KAM3 091931Z 21003KT 24/05 A3013 RMK A01 T02370047  RH  029%=      5-min Rain = 0
KAM3 091932Z 22003KT 24/05 A3013 RMK A01 T02370048  RH  029%=      5-min Rain = 0
KAM3 091933Z 22002KT 24/05 A3013 RMK A01 T02390048  RH  029%=      5-min Rain = 0
KAM3 091934Z 20005KT 24/04 A3013 RMK A01 T02400042  RH  028%=      5-min Rain = 0
KAM3 091935Z 24002KT 24/04 A3013 RMK A01 T02390041  RH  028%=      5-min Rain = 0
KAM3 091936Z 23003KT 24/04 A3013 RMK A01 T02360040  RH  028%=      5-min Rain = 0
KAM3 091937Z 23003KT 24/04 A3013 RMK A01 T02350041  RH  028%=      5-min Rain = 0
KAM3 091938Z 24002KT 23/03 A3013 RMK A01 T02340034  RH  027%=      5-min Rain = 0
KAM3 091939Z 22005KT 24/03 A3012 RMK A01 T02350028  RH  026%=      5-min Rain = 0
KAM3 091940Z 20003KT 24/02 A3012 RMK A01 T02350019  RH  024%=      5-min Rain = 0
KAM3 091941Z 26003KT 24/02 A3012 RMK A01 T02370023  RH  025%=      5-min Rain = 0
KAM3 091942Z 24002KT 24/02 A3012 RMK A01 T02380024  RH  025%=      5-min Rain = 0
KAM3 091943Z 19002KT 24/03 A3012 RMK A01 T02390026  RH  025%=      5-min Rain = 0
KAM3 091944Z 19002KT 24/03 A3012 RMK A01 T02410027  RH  025%=      5-min Rain = 0
KAM3 091945Z 19003KT 24/03 A3012 RMK A01 T02430030  RH  025%=      5-min Rain = 0
KAM3 091946Z 17002KT 24/03 A3012 RMK A01 T02440033  RH  025%=      5-min Rain = 0
KAM3 091947Z 18003KT 25/03 A3012 RMK A01 T02460027  RH  024%=      5-min Rain = 0
KAM3 091948Z 17006G12KT 25/02 A3012 RMK A01 T02460024  RH  023%=      5-min Rain = 0
KAM3 091949Z 20010KT 25/01 A3012 RMK A01 T02480009  RH  021%=      5-min Rain = 0
KAM3 091950Z 20010KT 25/M01 A3012 RMK A01 T02521008  RH  018%=      5-min Rain = 0
KAM3 091951Z 21009KT 26/M01 A3012 RMK A01 T02551014  RH  017%=      5-min Rain = 0
KAM3 091952Z 20008KT 26/M02 A3012 RMK A01 T02561015  RH  017%=      5-min Rain = 0
KAM3 091953Z 19011KT 26/M02 A3012 RMK A01 T02561018  RH  016%=      5-min Rain = 0
KAM3 091954Z 18010KT 26/M02 A3012 RMK A01 T02551023  RH  016%=      5-min Rain = 0
KAM3 091955Z 19010KT 25/M02 A3011 RMK A01 T02521022  RH  016%=      5-min Rain = 0
KAM3 091956Z 20006KT 25/M03 A3011 RMK A01 T02491026  RH  016%=      5-min Rain = 0
KAM3 091957Z 18007KT 25/M02 A3011 RMK A01 T02471023  RH  017%=      5-min Rain = 0
KAM3 091958Z 19008KT 25/M02 A3011 RMK A01 T02471022  RH  017%=      5-min Rain = 0
KAM3 091959Z 20011KT 25/M02 A3011 RMK A01 T02501016  RH  017%=      5-min Rain = 0
KAM3 092000Z 19009KT 25/M02 A3011 RMK A01 T02521017  RH  017%=      5-min Rain = 0
KAM3 092001Z 19008KT 25/M02 A3011 RMK A01 T02521017  RH  017%=      5-min Rain = 0
KAM3 092002Z 20007KT 25/M02 A3011 RMK A01 T02501015  RH  017%=      5-min Rain = 0
KAM3 092003Z 20006KT 25/M02 A3011 RMK A01 T02501020  RH  017%=      5-min Rain = 0
KAM3 092004Z 20006G12KT 25/M02 A3011 RMK A01 T02491021  RH  017%=      5-min Rain = 0
KAM3 092005Z 21010KT 25/M02 A3011 RMK A01 T02491024  RH  016%=      5-min Rain = 0
KAM3 092006Z 20011KT 25/M03 A3011 RMK A01 T02491026  RH  016%=      5-min Rain = 0
KAM3 092007Z 20010KT 25/M03 A3011 RMK A01 T02491026  RH  016%=      5-min Rain = 0
KAM3 092008Z 21009KT 25/M02 A3011 RMK A01 T02491023  RH  016%=      5-min Rain = 0
KAM3 092009Z 20011KT 25/M02 A3011 RMK A01 T02501019  RH  017%=      5-min Rain = 0
KAM3 092010Z 21010KT 25/M02 A3011 RMK A01 T02521016  RH  017%=      5-min Rain = 0
KAM3 092011Z 22010KT 25/M01 A3011 RMK A01 T02521014  RH  017%=      5-min Rain = 0
KAM3 092012Z 21006KT 25/M01 A3011 RMK A01 T02501014  RH  017%=      5-min Rain = 0
KAM3 092013Z 21006KT 25/M01 A3011 RMK A01 T02471014  RH  018%=      5-min Rain = 0
KAM3 092014Z 20007KT 25/M02 A301 RMK A01 T02461016  RH  018%=      5-min Rain = 0
KAM3 092015Z 21010KT 25/M01 A301 RMK A01 T02481014  RH  018%=      5-min Rain = 0
KAM3 092016Z 20010KT 25/M01 A301 RMK A01 T02511008  RH  018%=      5-min Rain = 0
KAM3 092017Z 20012KT 25/M01 A301 RMK A01 T02521007  RH  018%=      5-min Rain = 0
KAM3 092018Z 18010KT 25/M01 A301 RMK A01 T02501008  RH  018%=      5-min Rain = 0
KAM3 092019Z 18009KT 25/M01 A301 RMK A01 T02491008  RH  018%=      5-min Rain = 0
KAM3 092020Z 20006KT 25/M01 A301 RMK A01 T02491009  RH  018%=      5-min Rain = 0
KAM3 092021Z 21006KT 25/M01 A301 RMK A01 T02511012  RH  018%=      5-min Rain = 0
KAM3 092022Z 20009KT 25/M01 A301 RMK A01 T02531014  RH  017%=      5-min Rain = 0
KAM3 092023Z 20011KT 25/M02 A301 RMK A01 T02541022  RH  016%=      5-min Rain = 0
KAM3 092024Z 20008KT 25/M02 A301 RMK A01 T02511022  RH  016%=      5-min Rain = 0
KAM3 092025Z 19007KT 25/M02 A301 RMK A01 T02511020  RH  017%=      5-min Rain = 0
KAM3 092026Z 19009G14KT 25/M02 A301 RMK A01 T02511020  RH  017%=      5-min Rain = 0
KAM3 092027Z 23011KT 25/M02 A301 RMK A01 T02511019  RH  017%=      5-min Rain = 0
KAM3 092028Z 22010KT 25/M02 A301 RMK A01 T02521015  RH  017%=      5-min Rain = 0
KAM3 092029Z 22009KT 25/M01 A301 RMK A01 T02541014  RH  017%=      5-min Rain = 0
KAM3 092030Z 22010KT 26/M01 A301 RMK A01 T02561013  RH  017%=      5-min Rain = 0
KAM3 092031Z 20009KT 25/M02 A301 RMK A01 T02541017  RH  017%=      5-min Rain = 0
KAM3 092032Z 20013KT 25/M02 A301 RMK A01 T02521015  RH  017%=      5-min Rain = 0
KAM3 092033Z 19010KT 25/M02 A301 RMK A01 T02501017  RH  017%=      5-min Rain = 0
KAM3 092034Z 18010KT 25/M02 A301 RMK A01 T02491018  RH  017%=      5-min Rain = 0
KAM3 092035Z 19011KT 25/M02 A301 RMK A01 T02481019  RH  017%=      5-min Rain = 0
KAM3 092036Z 21009KT 25/M02 A301 RMK A01 T02491017  RH  017%=      5-min Rain = 0
KAM3 092037Z 20011KT 25/M02 A301 RMK A01 T02521020  RH  017%=      5-min Rain = 0
KAM3 092038Z 20009KT 25/M03 A301 RMK A01 T02511028  RH  016%=      5-min Rain = 0
KAM3 092039Z 22009KT 25/M03 A301 RMK A01 T02491028  RH  016%=      5-min Rain = 0
KAM3 092040Z 22010KT 25/M03 A301 RMK A01 T02491033  RH  015%=      5-min Rain = 0
KAM3 092041Z 22007KT 25/M04 A301 RMK A01 T02491035  RH  015%=      5-min Rain = 0
KAM3 092042Z 21007KT 25/M03 A301 RMK A01 T02501033  RH  015%=      5-min Rain = 0
KAM3 092043Z 22010KT 25/M03 A301 RMK A01 T02521030  RH  015%=      5-min Rain = 0
KAM3 092044Z 21012KT 25/M03 A301 RMK A01 T02541034  RH  015%=      5-min Rain = 0
KAM3 092045Z 21013KT 25/M04 A3009 RMK A01 T02531039  RH  014%=      5-min Rain = 0
KAM3 092046Z 21011KT 25/M04 A3009 RMK A01 T02521039  RH  014%=      5-min Rain = 0
KAM3 092047Z 21009KT 25/M03 A3009 RMK A01 T02501034  RH  015%=      5-min Rain = 0
KAM3 092048Z 19008KT 25/M03 A3009 RMK A01 T02511028  RH  016%=      5-min Rain = 0
KAM3 092049Z 20009KT 25/M03 A3009 RMK A01 T02511026  RH  016%=      5-min Rain = 0
KAM3 092050Z 22009KT 25/M03 A3009 RMK A01 T02521031  RH  015%=      5-min Rain = 0
KAM3 092051Z 22009G14KT 25/M03 A3009 RMK A01 T02521032  RH  015%=      5-min Rain = 0
KAM3 092052Z 21012KT 25/M03 A3009 RMK A01 T02521026  RH  016%=      5-min Rain = 0
KAM3 092053Z 21010KT 25/M02 A3009 RMK A01 T02521022  RH  016%=      5-min Rain = 0
KAM3 092054Z 19012KT 25/M03 A3009 RMK A01 T02521025  RH  016%=      5-min Rain = 0
KAM3 092055Z 19011KT 25/M03 A3009 RMK A01 T02511029  RH  015%=      5-min Rain = 0
KAM3 092056Z 20011KT 25/M03 A3009 RMK A01 T02501029  RH  016%=      5-min Rain = 0
KAM3 092057Z 19011KT 25/M03 A3009 RMK A01 T02491026  RH  016%=      5-min Rain = 0
KAM3 092058Z 19011KT 25/M02 A3009 RMK A01 T02491024  RH  016%=      5-min Rain = 0
KAM3 092059Z 20008KT 25/M03 A3009 RMK A01 T02501026  RH  016%=      5-min Rain = 0
KAM3 092100Z 20006KT 25/M03 A3009 RMK A01 T02501028  RH  016%=      5-min Rain = 0
KAM3 092101Z 19005KT 25/M03 A3009 RMK A01 T02481025  RH  016%=      5-min Rain = 0
KAM3 092102Z 19008KT 25/M02 A3009 RMK A01 T02501021  RH  017%=      5-min Rain = 0
KAM3 092103Z 22012KT 25/M02 A3009 RMK A01 T02531020  RH  016%=      5-min Rain = 0
KAM3 092104Z 21011KT 25/M02 A3009 RMK A01 T02541021  RH  016%=      5-min Rain = 0
KAM3 092105Z 21013KT 26/M02 A3009 RMK A01 T02551023  RH  016%=      5-min Rain = 0
KAM3 092106Z 22010KT 25/M03 A3009 RMK A01 T02541027  RH  016%=      5-min Rain = 0
KAM3 092107Z 22008KT 25/M03 A3009 RMK A01 T02521028  RH  016%=      5-min Rain = 0
KAM3 092108Z 21010KT 25/M02 A3009 RMK A01 T02521024  RH  016%=      5-min Rain = 0
KAM3 092109Z 19008KT 25/M03 A3009 RMK A01 T02531025  RH  016%=      5-min Rain = 0
KAM3 092110Z 19011KT 25/M02 A3009 RMK A01 T02531024  RH  016%=      5-min Rain = 0
KAM3 092111Z 19013KT 25/M03 A3009 RMK A01 T02531026  RH  016%=      5-min Rain = 0
KAM3 092112Z 19010KT 25/M03 A3009 RMK A01 T02531025  RH  016%=      5-min Rain = 0
KAM3 092113Z 20009KT 25/M03 A3009 RMK A01 T02521025  RH  016%=      5-min Rain = 0
KAM3 092114Z 19007KT 25/M03 A3009 RMK A01 T02521026  RH  016%=      5-min Rain = 0
KAM3 092115Z 19008KT 25/M03 A3009 RMK A01 T02511026  RH  016%=      5-min Rain = 0
KAM3 092116Z 20007KT 25/M03 A3008 RMK A01 T02511026  RH  016%=      5-min Rain = 0
KAM3 092117Z 19011KT 25/M03 A3008 RMK A01 T02521026  RH  016%=      5-min Rain = 0
KAM3 092118Z 19012KT 25/M03 A3008 RMK A01 T02531028  RH  015%=      5-min Rain = 0
KAM3 092119Z 21010KT 25/M03 A3008 RMK A01 T02521031  RH  015%=      5-min Rain = 0
KAM3 092120Z 21009KT 25/M03 A3008 RMK A01 T02511034  RH  015%=      5-min Rain = 0
KAM3 092121Z 20006KT 25/M04 A3008 RMK A01 T02501036  RH  015%=      5-min Rain = 0
KAM3 092122Z 20007KT 25/M03 A3008 RMK A01 T02501034  RH  015%=      5-min Rain = 0
KAM3 092123Z 19011KT 25/M03 A3008 RMK A01 T02521031  RH  015%=      5-min Rain = 0
KAM3 092124Z 21009KT 25/M03 A3008 RMK A01 T02521031  RH  015%=      5-min Rain = 0
KAM3 092125Z 21009KT 25/M03 A3008 RMK A01 T02521030  RH  015%=      5-min Rain = 0
KAM3 092126Z 21011KT 25/M03 A3008 RMK A01 T02531029  RH  015%=      5-min Rain = 0
KAM3 092127Z 20011KT 25/M03 A3008 RMK A01 T02541034  RH  015%=      5-min Rain = 0
KAM3 092128Z 21012KT 26/M03 A3008 RMK A01 T02551033  RH  015%=      5-min Rain = 0
KAM3 092129Z 21010KT 25/M04 A3008 RMK A01 T02541035  RH  015%=      5-min Rain = 0
KAM3 092130Z 22008KT 25/M03 A3008 RMK A01 T02521034  RH  015%=      5-min Rain = 0
KAM3 092131Z 22009KT 25/M03 A3008 RMK A01 T02531034  RH  015%=      5-min Rain = 0
KAM3 092132Z 22013G21KT 25/M04 A3008 RMK A01 T02541036  RH  014%=      5-min Rain = 0
KAM3 092133Z 20011G16KT 25/M04 A3008 RMK A01 T02541035  RH  015%=      5-min Rain = 0
KAM3 092134Z 19011KT 25/M03 A3008 RMK A01 T02531034  RH  015%=      5-min Rain = 0
KAM3 092135Z 19013KT 25/M03 A3008 RMK A01 T02531034  RH  015%=      5-min Rain = 0
KAM3 092136Z 20011KT 25/M04 A3008 RMK A01 T02521035  RH  015%=      5-min Rain = 0
KAM3 092137Z 20011KT 25/M04 A3008 RMK A01 T02511035  RH  015%=      5-min Rain = 0
KAM3 092138Z 19012KT 25/M04 A3008 RMK A01 T02511036  RH  015%=      5-min Rain = 0
KAM3 092139Z 19011KT 25/M04 A3008 RMK A01 T02511038  RH  014%=      5-min Rain = 0
KAM3 092140Z 19011KT 25/M04 A3008 RMK A01 T02501035  RH  015%=      5-min Rain = 0
KAM3 092141Z 19008KT 25/M04 A3008 RMK A01 T02521037  RH  015%=      5-min Rain = 0
KAM3 092142Z 19010KT 25/M04 A3008 RMK A01 T02511038  RH  014%=      5-min Rain = 0
KAM3 092143Z 19009KT 25/M04 A3008 RMK A01 T02501040  RH  014%=      5-min Rain = 0
KAM3 092144Z 19009KT 25/M04 A3008 RMK A01 T02491041  RH  014%=      5-min Rain = 0
KAM3 092145Z 19010KT 25/M04 A3008 RMK A01 T02501038  RH  015%=      5-min Rain = 0
KAM3 092146Z 20010KT 25/M04 A3008 RMK A01 T02511039  RH  014%=      5-min Rain = 0
KAM3 092147Z 19008KT 25/M04 A3008 RMK A01 T02511043  RH  014%=      5-min Rain = 0
KAM3 092148Z 19008KT 25/M04 A3007 RMK A01 T02501041  RH  014%=      5-min Rain = 0
KAM3 092149Z 20011KT 25/M04 A3007 RMK A01 T02501043  RH  014%=      5-min Rain = 0
KAM3 092150Z 20012KT 25/M05 A3007 RMK A01 T02511045  RH  014%=      5-min Rain = 0
KAM3 092151Z 21009KT 25/M05 A3007 RMK A01 T02511045  RH  014%=      5-min Rain = 0
KAM3 092152Z 20014KT 25/M04 A3007 RMK A01 T02511043  RH  014%=      5-min Rain = 0
KAM3 092153Z 19012KT 25/M05 A3007 RMK A01 T02511045  RH  014%=      5-min Rain = 0
KAM3 092154Z 19014KT 25/M05 A3007 RMK A01 T02511046  RH  014%=      5-min Rain = 0
KAM3 092155Z 19013KT 25/M05 A3007 RMK A01 T02511048  RH  013%=      5-min Rain = 0
KAM3 092156Z 19013KT 25/M05 A3007 RMK A01 T02491049  RH  014%=      5-min Rain = 0
KAM3 092157Z 20012KT 25/M05 A3007 RMK A01 T02491049  RH  014%=      5-min Rain = 0
KAM3 092158Z 20013KT 25/M05 A3007 RMK A01 T02481049  RH  014%=      5-min Rain = 0
KAM3 092159Z 20012KT 25/M05 A3007 RMK A01 T02491050  RH  013%=      5-min Rain = 0
KAM3 092200Z 20013KT 25/M05 A3007 RMK A01 T02491050  RH  013%=      5-min Rain = 0
KAM3 092201Z 20012KT 25/M05 A3007 RMK A01 T02481047  RH  014%=      5-min Rain = 0
KAM3 092202Z 20013KT 25/M05 A3007 RMK A01 T02481045  RH  014%=      5-min Rain = 0
KAM3 092203Z 20010KT 25/M05 A3007 RMK A01 T02481045  RH  014%=      5-min Rain = 0
KAM3 092204Z 20011KT 25/M04 A3007 RMK A01 T02481043  RH  014%=      5-min Rain = 0
KAM3 092205Z 19012KT 25/M04 A3007 RMK A01 T02481043  RH  014%=      5-min Rain = 0
KAM3 092206Z 20010KT 25/M04 A3007 RMK A01 T02481042  RH  014%=      5-min Rain = 0
KAM3 092207Z 19011KT 25/M04 A3007 RMK A01 T02481041  RH  014%=      5-min Rain = 0
KAM3 092208Z 20010KT 25/M04 A3007 RMK A01 T02481039  RH  015%=      5-min Rain = 0
KAM3 092209Z 21010KT 25/M04 A3007 RMK A01 T02481037  RH  015%=      5-min Rain = 0
KAM3 092210Z 21009KT 25/M04 A3007 RMK A01 T02491037  RH  015%=      5-min Rain = 0
KAM3 092211Z 19012KT 25/M04 A3007 RMK A01 T02491036  RH  015%=      5-min Rain = 0
KAM3 092212Z 20010KT 25/M04 A3007 RMK A01 T02491037  RH  015%=      5-min Rain = 0
KAM3 092213Z 20012KT 25/M04 A3007 RMK A01 T02481037  RH  015%=      5-min Rain = 0
KAM3 092214Z 20013KT 25/M04 A3007 RMK A01 T02481038  RH  015%=      5-min Rain = 0
KAM3 092215Z 19011KT 25/M04 A3007 RMK A01 T02471043  RH  014%=      5-min Rain = 0
KAM3 092216Z 20013KT 25/M04 A3007 RMK A01 T02471041  RH  015%=      5-min Rain = 0
KAM3 092217Z 20012KT 25/M04 A3007 RMK A01 T02461042  RH  015%=      5-min Rain = 0
KAM3 092218Z 20011KT 25/M04 A3007 RMK A01 T02461042  RH  015%=      5-min Rain = 0
KAM3 092219Z 20012KT 25/M04 A3007 RMK A01 T02461040  RH  015%=      5-min Rain = 0
KAM3 092220Z 20009G14KT 25/M04 A3007 RMK A01 T02451038  RH  015%=      5-min Rain = 0
KAM3 092221Z 20012KT 25/M04 A3007 RMK A01 T02451039  RH  015%=      5-min Rain = 0
KAM3 092222Z 19010KT 25/M04 A3007 RMK A01 T02451041  RH  015%=      5-min Rain = 0
KAM3 092223Z 19009KT 25/M04 A3007 RMK A01 T02451040  RH  015%=      5-min Rain = 0
KAM3 092224Z 19011KT 25/M04 A3007 RMK A01 T02451040  RH  015%=      5-min Rain = 0
KAM3 092225Z 19009KT 25/M04 A3007 RMK A01 T02451041  RH  015%=      5-min Rain = 0
KAM3 092226Z 19010KT 25/M04 A3007 RMK A01 T02451039  RH  015%=      5-min Rain = 0
KAM3 092227Z 19011KT 25/M04 A3007 RMK A01 T02451038  RH  015%=      5-min Rain = 0
KAM3 092228Z 19009KT 25/M03 A3007 RMK A01 T02451033  RH  016%=      5-min Rain = 0
KAM3 092229Z 19010KT 24/M03 A3007 RMK A01 T02441032  RH  016%=      5-min Rain = 0
KAM3 092230Z 19009KT 24/M03 A3007 RMK A01 T02441033  RH  016%=      5-min Rain = 0
KAM3 092231Z 20010KT 24/M03 A3006 RMK A01 T02441034  RH  016%=      5-min Rain = 0
KAM3 092232Z 20012KT 24/M03 A3006 RMK A01 T02441032  RH  016%=      5-min Rain = 0
KAM3 092233Z 20011KT 24/M03 A3006 RMK A01 T02431031  RH  016%=      5-min Rain = 0
KAM3 092234Z 20011KT 24/M03 A3006 RMK A01 T02431031  RH  016%=      5-min Rain = 0
KAM3 092235Z 20012KT 24/M03 A3006 RMK A01 T02421030  RH  016%=      5-min Rain = 0
KAM3 092236Z 20011KT 24/M03 A3006 RMK A01 T02421030  RH  016%=      5-min Rain = 0
KAM3 092237Z 20009KT 24/M03 A3006 RMK A01 T02411030  RH  016%=      5-min Rain = 0
KAM3 092238Z 19009KT 24/M03 A3006 RMK A01 T02411027  RH  017%=      5-min Rain = 0
KAM3 092239Z 19011KT 24/M02 A3006 RMK A01 T02411024  RH  017%=      5-min Rain = 0
KAM3 092240Z 19010KT 24/M02 A3006 RMK A01 T02411023  RH  017%=      5-min Rain = 0
KAM3 092241Z 19011KT 24/M02 A3006 RMK A01 T02411022  RH  017%=      5-min Rain = 0
KAM3 092242Z 19010KT 24/M02 A3006 RMK A01 T02401022  RH  017%=      5-min Rain = 0
KAM3 092243Z 19010KT 24/M02 A3006 RMK A01 T02401021  RH  018%=      5-min Rain = 0
KAM3 092244Z 18009KT 24/M02 A3006 RMK A01 T02391020  RH  018%=      5-min Rain = 0
KAM3 092245Z 19007KT 24/M02 A3006 RMK A01 T02391019  RH  018%=      5-min Rain = 0
KAM3 092246Z 19007KT 24/M02 A3006 RMK A01 T02391017  RH  018%=      5-min Rain = 0
KAM3 092247Z 19009KT 24/M02 A3006 RMK A01 T02391016  RH  018%=      5-min Rain = 0
KAM3 092248Z 19010KT 24/M02 A3006 RMK A01 T02391015  RH  018%=      5-min Rain = 0
KAM3 092249Z 19009KT 24/M02 A3006 RMK A01 T02381016  RH  018%=      5-min Rain = 0
KAM3 092250Z 18008KT 24/M02 A3006 RMK A01 T02381015  RH  019%=      5-min Rain = 0
KAM3 092251Z 18008KT 24/M02 A3006 RMK A01 T02371015  RH  019%=      5-min Rain = 0
KAM3 092252Z 18008KT 24/M02 A3006 RMK A01 T02371017  RH  018%=      5-min Rain = 0
KAM3 092253Z 19010KT 24/M02 A3006 RMK A01 T02361016  RH  019%=      5-min Rain = 0
KAM3 092254Z 18009KT 24/M02 A3006 RMK A01 T02351018  RH  018%=      5-min Rain = 0
KAM3 092255Z 19007KT 24/M02 A3006 RMK A01 T02351017  RH  019%=      5-min Rain = 0
KAM3 092256Z 19006KT 23/M02 A3006 RMK A01 T02341016  RH  019%=      5-min Rain = 0
KAM3 092257Z 18007KT 23/M02 A3006 RMK A01 T02341015  RH  019%=      5-min Rain = 0
KAM3 092258Z 18008KT 23/M01 A3006 RMK A01 T02341014  RH  019%=      5-min Rain = 0
KAM3 092259Z 18007KT 23/M02 A3006 RMK A01 T02331015  RH  019%=      5-min Rain = 0
KAM3 092300Z 18009KT 23/M01 A3006 RMK A01 T02331014  RH  019%=      5-min Rain = 0
KAM3 092301Z 18008KT 23/M02 A3006 RMK A01 T02321015  RH  019%=      5-min Rain = 0
KAM3 092302Z 18007KT 23/M01 A3006 RMK A01 T02311014  RH  019%=      5-min Rain = 0
KAM3 092303Z 18007KT 23/M01 A3006 RMK A01 T02311014  RH  020%=      5-min Rain = 0
KAM3 092304Z 19007KT 23/M02 A3006 RMK A01 T02301015  RH  020%=      5-min Rain = 0
KAM3 092305Z 19007KT 23/M02 A3006 RMK A01 T02301015  RH  020%=      5-min Rain = 0
KAM3 092306Z 18007KT 23/M01 A3006 RMK A01 T02291014  RH  020%=      5-min Rain = 0
KAM3 092307Z 19008KT 23/M02 A3006 RMK A01 T02281015  RH  020%=      5-min Rain = 0
KAM3 092308Z 18008KT 23/M02 A3006 RMK A01 T02271016  RH  020%=      5-min Rain = 0
KAM3 092309Z 18007KT 23/M02 A3006 RMK A01 T02261018  RH  019%=      5-min Rain = 0
KAM3 092310Z 18007KT 23/M02 A3006 RMK A01 T02261019  RH  019%=      5-min Rain = 0
KAM3 092311Z 18007KT 23/M02 A3006 RMK A01 T02251019  RH  020%=      5-min Rain = 0
KAM3 092312Z 18007KT 22/M02 A3006 RMK A01 T02241018  RH  020%=      5-min Rain = 0
KAM3 092313Z 18007KT 22/M02 A3006 RMK A01 T02241018  RH  020%=      5-min Rain = 0
KAM3 092314Z 18007KT 22/M02 A3006 RMK A01 T02221018  RH  020%=      5-min Rain = 0
KAM3 092315Z 18007KT 22/M02 A3006 RMK A01 T02221018  RH  020%=      5-min Rain = 0
KAM3 092316Z 18007KT 22/M02 A3006 RMK A01 T02211018  RH  020%=      5-min Rain = 0
KAM3 092317Z 18007KT 22/M02 A3006 RMK A01 T02201018  RH  020%=      5-min Rain = 0
KAM3 092318Z 17007KT 22/M02 A3006 RMK A01 T02191018  RH  020%=      5-min Rain = 0
KAM3 092319Z 17007KT 22/M02 A3006 RMK A01 T02181018  RH  021%=      5-min Rain = 0
KAM3 092320Z 18007KT 22/M02 A3006 RMK A01 T02171018  RH  021%=      5-min Rain = 0
KAM3 092321Z 18007KT 22/M02 A3006 RMK A01 T02161018  RH  021%=      5-min Rain = 0
KAM3 092322Z 18008KT 22/M02 A3006 RMK A01 T02151018  RH  021%=      5-min Rain = 0
KAM3 092323Z 18008KT 21/M02 A3006 RMK A01 T02131018  RH  021%=      5-min Rain = 0
KAM3 092324Z 17007KT 21/M02 A3006 RMK A01 T02131019  RH  021%=      5-min Rain = 0
KAM3 092325Z 17008KT 21/M02 A3006 RMK A01 T02121019  RH  021%=      5-min Rain = 0
KAM3 092326Z 18008KT 21/M02 A3006 RMK A01 T02111019  RH  021%=      5-min Rain = 0
KAM3 092327Z 18008KT 21/M02 A3006 RMK A01 T02091020  RH  021%=      5-min Rain = 0
KAM3 092328Z 18008KT 21/M02 A3006 RMK A01 T02091020  RH  021%=      5-min Rain = 0
KAM3 092329Z 18008KT 21/M02 A3006 RMK A01 T02071020  RH  022%=      5-min Rain = 0
KAM3 092330Z 18008KT 21/M02 A3006 RMK A01 T02051021  RH  022%=      5-min Rain = 0
KAM3 092331Z 18008KT 20/M02 A3006 RMK A01 T02041021  RH  022%=      5-min Rain = 0
KAM3 092332Z 18009KT 20/M02 A3006 RMK A01 T02031021  RH  022%=      5-min Rain = 0
KAM3 092333Z 18009KT 20/M02 A3006 RMK A01 T02021022  RH  022%=      5-min Rain = 0
KAM3 092334Z 18009KT 20/M02 A3006 RMK A01 T02011021  RH  022%=      5-min Rain = 0
KAM3 092335Z 18009KT 20/M02 A3006 RMK A01 T02001021  RH  022%=      5-min Rain = 0
KAM3 092336Z 18009KT 20/M02 A3006 RMK A01 T01991022  RH  023%=      5-min Rain = 0
KAM3 092337Z 18009KT 20/M02 A3006 RMK A01 T01981022  RH  023%=      5-min Rain = 0
KAM3 092338Z 18009KT 20/M02 A3006 RMK A01 T01971021  RH  023%=      5-min Rain = 0
KAM3 092339Z 18009KT 20/M02 A3006 RMK A01 T01961021  RH  023%=      5-min Rain = 0
KAM3 092340Z 18009KT 20/M02 A3006 RMK A01 T01951021  RH  023%=      5-min Rain = 0
KAM3 092341Z 18009KT 19/M02 A3006 RMK A01 T01941021  RH  023%=      5-min Rain = 0
KAM3 092342Z 18010KT 19/M02 A3006 RMK A01 T01931021  RH  023%=      5-min Rain = 0
KAM3 092343Z 18010KT 19/M02 A3006 RMK A01 T01931021  RH  023%=      5-min Rain = 0
KAM3 092344Z 18010KT 19/M02 A3006 RMK A01 T01921021  RH  024%=      5-min Rain = 0
KAM3 092345Z 18010KT 19/M02 A3006 RMK A01 T01921021  RH  024%=      5-min Rain = 0
KAM3 092346Z 18010KT 19/M02 A3006 RMK A01 T01911021  RH  024%=      5-min Rain = 0
KAM3 092347Z 18010KT 19/M02 A3006 RMK A01 T01901021  RH  024%=      5-min Rain = 0
KAM3 092348Z 18010KT 19/M02 A3006 RMK A01 T01901021  RH  024%=      5-min Rain = 0
KAM3 092349Z 18010KT 19/M02 A3006 RMK A01 T01891021  RH  024%=      5-min Rain = 0
KAM3 092350Z 18010KT 19/M02 A3006 RMK A01 T01891021  RH  024%=      5-min Rain = 0
KAM3 092351Z 18010KT 19/M02 A3006 RMK A01 T01891021  RH  024%=      5-min Rain = 0
KAM3 092352Z 18010KT 19/M02 A3006 RMK A01 T01881021  RH  024%=      5-min Rain = 0
KAM3 092353Z 18010KT 19/M02 A3006 RMK A01 T01871021  RH  024%=      5-min Rain = 0
KAM3 092354Z 18010KT 19/M02 A3006 RMK A01 T01871020  RH  024%=      5-min Rain = 0
KAM3 092355Z 18010KT 19/M02 A3006 RMK A01 T01861020  RH  025%=      5-min Rain = 0
KAM3 092356Z 17010KT 19/M02 A3006 RMK A01 T01861020  RH  025%=      5-min Rain = 0
KAM3 092357Z 17010KT 19/M02 A3006 RMK A01 T01851020  RH  025%=      5-min Rain = 0
KAM3 092358Z 17010KT 18/M02 A3006 RMK A01 T01841020  RH  025%=      5-min Rain = 0
KAM3 092359Z 17010KT 18/M02 A3006 RMK A01 T01831020  RH  025%=      5-min Rain = 0
KAM3 100000Z 17010KT 18/M02 A3006 RMK A01 T01821020  RH  025%=      5-min Rain = 0
KAM3 100001Z 17010KT 18/M02 A3006 RMK A01 T01811020  RH  025%=      5-min Rain = 0
KAM3 100002Z 17010KT 18/M02 A3006 RMK A01 T01811020  RH  026%=      5-min Rain = 0
KAM3 100003Z 17010KT 18/M02 A3006 RMK A01 T01801020  RH  026%=      5-min Rain = 0
KAM3 100004Z 17010KT 18/M02 A3006 RMK A01 T01801019  RH  026%=      5-min Rain = 0
KAM3 100005Z 17010KT 18/M02 A3006 RMK A01 T01791019  RH  026%=      5-min Rain = 0
KAM3 100006Z 18011KT 18/M02 A3006 RMK A01 T01781019  RH  026%=      5-min Rain = 0
KAM3 100007Z 18011KT 18/M02 A3006 RMK A01 T01771019  RH  026%=      5-min Rain = 0
KAM3 100008Z 18011KT 18/M02 A3006 RMK A01 T01771018  RH  026%=      5-min Rain = 0
KAM3 100009Z 17011KT 18/M02 A3006 RMK A01 T01761018  RH  027%=      5-min Rain = 0
KAM3 100010Z 17011KT 18/M02 A3006 RMK A01 T01761018  RH  027%=      5-min Rain = 0
KAM3 100011Z 18011KT 18/M02 A3006 RMK A01 T01751018  RH  027%=      5-min Rain = 0
KAM3 100012Z 17011KT 18/M02 A3006 RMK A01 T01751017  RH  027%=      5-min Rain = 0
KAM3 100013Z 17011KT 17/M02 A3006 RMK A01 T01741017  RH  027%=      5-min Rain = 0
KAM3 100014Z 18011KT 17/M02 A3006 RMK A01 T01741016  RH  027%=      5-min Rain = 0
KAM3 100015Z 18011KT 17/M02 A3006 RMK A01 T01741016  RH  027%=      5-min Rain = 0
KAM3 100016Z 18011KT 17/M02 A3006 RMK A01 T01731016  RH  028%=      5-min Rain = 0
KAM3 100017Z 18011KT 17/M02 A3006 RMK A01 T01731015  RH  028%=      5-min Rain = 0
KAM3 100018Z 18011KT 17/M02 A3006 RMK A01 T01721015  RH  028%=      5-min Rain = 0
KAM3 100019Z 18011KT 17/M01 A3006 RMK A01 T01711014  RH  028%=      5-min Rain = 0
KAM3 100020Z 18011KT 17/M01 A3006 RMK A01 T01711014  RH  028%=      5-min Rain = 0
KAM3 100021Z 17011KT 17/M01 A3006 RMK A01 T01701014  RH  029%=      5-min Rain = 0
KAM3 100022Z 18011KT 17/M01 A3006 RMK A01 T01701013  RH  029%=      5-min Rain = 0
KAM3 100023Z 17011KT 17/M01 A3006 RMK A01 T01681012  RH  029%=      5-min Rain = 0
KAM3 100024Z 18011KT 17/M01 A3006 RMK A01 T01671012  RH  029%=      5-min Rain = 0
KAM3 100025Z 17011KT 17/M01 A3006 RMK A01 T01661011  RH  030%=      5-min Rain = 0
KAM3 100026Z 17011KT 17/M01 A3006 RMK A01 T01651011  RH  030%=      5-min Rain = 0
KAM3 100027Z 18011KT 16/M01 A3006 RMK A01 T01641010  RH  031%=      5-min Rain = 0
KAM3 100028Z 18011KT 16/M01 A3006 RMK A01 T01641009  RH  031%=      5-min Rain = 0
KAM3 100029Z 18012KT 16/M01 A3006 RMK A01 T01631009  RH  031%=      5-min Rain = 0
KAM3 100030Z 18011KT 16/M01 A3006 RMK A01 T01621009  RH  031%=      5-min Rain = 0
KAM3 100031Z 18011KT 16/M01 A3006 RMK A01 T01611009  RH  031%=      5-min Rain = 0
KAM3 100032Z 18011KT 16/M01 A3006 RMK A01 T01601008  RH  032%=      5-min Rain = 0
KAM3 100033Z 18010KT 16/M01 A3006 RMK A01 T01601008  RH  032%=      5-min Rain = 0
KAM3 100034Z 18010KT 16/M01 A3006 RMK A01 T01591008  RH  032%=      5-min Rain = 0
KAM3 100035Z 18009KT 16/M01 A3006 RMK A01 T01581008  RH  032%=      5-min Rain = 0
KAM3 100036Z 18009KT 16/M01 A3006 RMK A01 T01571008  RH  033%=      5-min Rain = 0
KAM3 100037Z 18009KT 16/M01 A3006 RMK A01 T01551008  RH  033%=      5-min Rain = 0
KAM3 100038Z 18009KT 15/M01 A3006 RMK A01 T01541008  RH  033%=      5-min Rain = 0
KAM3 100039Z 18009KT 15/M01 A3006 RMK A01 T01531007  RH  033%=      5-min Rain = 0
KAM3 100040Z 18009KT 15/M01 A3006 RMK A01 T01521007  RH  034%=      5-min Rain = 0
KAM3 100041Z 18009KT 15/M01 A3006 RMK A01 T01511007  RH  034%=      5-min Rain = 0
KAM3 100042Z 18010KT 15/M01 A3006 RMK A01 T01501007  RH  034%=      5-min Rain = 0
KAM3 100043Z 18009KT 15/M01 A3006 RMK A01 T01501007  RH  034%=      5-min Rain = 0
KAM3 100044Z 18010KT 15/M01 A3006 RMK A01 T01491007  RH  034%=      5-min Rain = 0
KAM3 100045Z 18009KT 15/M01 A3006 RMK A01 T01481006  RH  035%=      5-min Rain = 0
KAM3 100046Z 18009KT 15/M01 A3006 RMK A01 T01471007  RH  035%=      5-min Rain = 0
KAM3 100047Z 18009KT 15/M01 A3006 RMK A01 T01471006  RH  035%=      5-min Rain = 0
KAM3 100048Z 18009KT 15/M01 A3006 RMK A01 T01461006  RH  035%=      5-min Rain = 0
KAM3 100049Z 18010KT 15/M01 A3006 RMK A01 T01461006  RH  035%=      5-min Rain = 0
KAM3 100050Z 18010KT 15/M01 A3006 RMK A01 T01451006  RH  035%=      5-min Rain = 0
KAM3 100051Z 18009KT 15/M01 A3006 RMK A01 T01451006  RH  035%=      5-min Rain = 0
KAM3 100052Z 18010KT 15/M01 A3006 RMK A01 T01451006  RH  035%=      5-min Rain = 0
KAM3 100053Z 18010KT 15/M01 A3006 RMK A01 T01451006  RH  036%=      5-min Rain = 0
KAM3 100054Z 18009KT 14/M01 A3006 RMK A01 T01441006  RH  036%=      5-min Rain = 0
KAM3 100055Z 18010KT 14/M01 A3006 RMK A01 T01431006  RH  036%=      5-min Rain = 0
KAM3 100056Z 18010KT 14/M01 A3006 RMK A01 T01431006  RH  036%=      5-min Rain = 0
KAM3 100057Z 18010KT 14/M01 A3006 RMK A01 T01431006  RH  036%=      5-min Rain = 0
KAM3 100058Z 18010KT 14/M01 A3006 RMK A01 T01421006  RH  036%=      5-min Rain = 0
KAM3 100059Z 18010KT 14/M01 A3006 RMK A01 T01421006  RH  036%=      5-min Rain = 0
KAM3 100100Z 18010KT 14/M01 A3006 RMK A01 T01421006  RH  036%=      5-min Rain = 0
KAM3 100101Z 18010KT 14/M01 A3006 RMK A01 T01411006  RH  036%=      5-min Rain = 0
KAM3 100102Z 18011KT 14/M01 A3006 RMK A01 T01411006  RH  036%=      5-min Rain = 0
KAM3 100103Z 19011KT 14/M01 A3006 RMK A01 T01421006  RH  036%=      5-min Rain = 0
KAM3 100104Z 19011KT 14/M01 A3006 RMK A01 T01421006  RH  036%=      5-min Rain = 0
KAM3 100105Z 18011KT 14/M01 A3006 RMK A01 T01421005  RH  036%=      5-min Rain = 0
KAM3 100106Z 18010KT 14/M01 A3006 RMK A01 T01421005  RH  036%=      5-min Rain = 0
KAM3 100107Z 18010KT 14/M01 A3006 RMK A01 T01421005  RH  036%=      5-min Rain = 0
KAM3 100108Z 18010KT 14/M00 A3006 RMK A01 T01421004  RH  037%=      5-min Rain = 0
KAM3 100109Z 19011KT 14/M00 A3006 RMK A01 T01411004  RH  037%=      5-min Rain = 0
KAM3 100110Z 19011KT 14/M00 A3006 RMK A01 T01411004  RH  037%=      5-min Rain = 0
KAM3 100116Z 19011KT 15/M00 A3006 RMK A01 T01451003  RH  036%=      5-min Rain = 0
KAM3 100117Z 19011KT 15/M00 A3006 RMK A01 T01461003  RH  036%=      5-min Rain = 0
KAM3 100118Z 19010KT 15/M00 A3006 RMK A01 T01481003  RH  036%=      5-min Rain = 0
KAM3 100119Z 19010KT 15/M00 A3006 RMK A01 T01491003  RH  036%=      5-min Rain = 0
KAM3 100120Z 19010KT 15/M00 A3006 RMK A01 T01501002  RH  035%=      5-min Rain = 0
KAM3 100121Z 19011KT 15/M00 A3006 RMK A01 T01501002  RH  035%=      5-min Rain = 0
KAM3 100122Z 19011KT 15/M00 A3006 RMK A01 T01511002  RH  035%=      5-min Rain = 0
KAM3 100123Z 19011KT 15/M00 A3006 RMK A01 T01521003  RH  035%=      5-min Rain = 0
KAM3 100124Z 19010KT 15/M00 A3006 RMK A01 T01531002  RH  035%=      5-min Rain = 0
KAM3 100125Z 19010KT 15/M00 A3006 RMK A01 T01541002  RH  034%=      5-min Rain = 0
KAM3 100126Z 19010KT 15/M00 A3006 RMK A01 T01541002  RH  034%=      5-min Rain = 0
KAM3 100127Z 19010KT 16/M00 A3006 RMK A01 T01551002  RH  034%=      5-min Rain = 0
KAM3 100128Z 19010KT 16/M00 A3006 RMK A01 T01551002  RH  034%=      5-min Rain = 0
KAM3 100129Z 19010KT 16/M00 A3006 RMK A01 T01551001  RH  034%=      5-min Rain = 0
KAM3 100130Z 19009KT 16/00 A3006 RMK A01 T01550000  RH  035%=      5-min Rain = 0
KAM3 100131Z 19010KT 16/00 A3006 RMK A01 T01550001  RH  035%=      5-min Rain = 0
KAM3 100132Z 19010KT 16/00 A3006 RMK A01 T01550003  RH  035%=      5-min Rain = 0
KAM3 100133Z 19010KT 16/00 A3006 RMK A01 T01550003  RH  036%=      5-min Rain = 0
KAM3 100134Z 19010KT 16/00 A3006 RMK A01 T01550004  RH  036%=      5-min Rain = 0
KAM3 100135Z 19009KT 16/01 A3006 RMK A01 T01560005  RH  036%=      5-min Rain = 0
KAM3 100136Z 18010KT 16/00 A3006 RMK A01 T01550004  RH  036%=      5-min Rain = 0
KAM3 100137Z 18010KT 15/00 A3006 RMK A01 T01530004  RH  036%=      5-min Rain = 0
KAM3 100138Z 18009KT 15/00 A3006 RMK A01 T01520004  RH  036%=      5-min Rain = 0
KAM3 100139Z 18009KT 15/00 A3006 RMK A01 T01500004  RH  037%=      5-min Rain = 0
KAM3 100140Z 18010KT 15/00 A3006 RMK A01 T01480003  RH  037%=      5-min Rain = 0
KAM3 100141Z 18009KT 15/00 A3006 RMK A01 T01460003  RH  038%=      5-min Rain = 0
KAM3 100142Z 19010KT 14/00 A3006 RMK A01 T01440003  RH  038%=      5-min Rain = 0
KAM3 100143Z 19010KT 14/00 A3006 RMK A01 T01430002  RH  038%=      5-min Rain = 0
KAM3 100144Z 19010KT 14/00 A3006 RMK A01 T01430002  RH  038%=      5-min Rain = 0
KAM3 100145Z 19010KT 14/00 A3006 RMK A01 T01430002  RH  038%=      5-min Rain = 0
KAM3 100146Z 19011KT 14/00 A3006 RMK A01 T01430002  RH  038%=      5-min Rain = 0
KAM3 100147Z 19010KT 14/00 A3006 RMK A01 T01430002  RH  038%=      5-min Rain = 0
KAM3 100148Z 19010KT 14/00 A3006 RMK A01 T01440001  RH  038%=      5-min Rain = 0
KAM3 100149Z 20011KT 14/00 A3006 RMK A01 T01440001  RH  038%=      5-min Rain = 0
KAM3 100150Z 20011KT 15/00 A3006 RMK A01 T01460001  RH  037%=      5-min Rain = 0
KAM3 100151Z 20010KT 15/00 A3006 RMK A01 T01480002  RH  037%=      5-min Rain = 0
KAM3 100152Z 20010KT 15/00 A3006 RMK A01 T01490001  RH  036%=      5-min Rain = 0
KAM3 100153Z 19010KT 15/00 A3006 RMK A01 T01510002  RH  036%=      5-min Rain = 0
KAM3 100154Z 20010KT 15/00 A3006 RMK A01 T01510001  RH  036%=      5-min Rain = 0
KAM3 100155Z 20011KT 15/00 A3006 RMK A01 T01520002  RH  036%=      5-min Rain = 0
KAM3 100156Z 20011KT 15/00 A3006 RMK A01 T01530001  RH  036%=      5-min Rain = 0
KAM3 100157Z 20011KT 15/00 A3006 RMK A01 T01540001  RH  035%=      5-min Rain = 0
KAM3 100158Z 20011KT 15/00 A3006 RMK A01 T01540001  RH  035%=      5-min Rain = 0
KAM3 100159Z 20011KT 16/00 A3006 RMK A01 T01550002  RH  035%=      5-min Rain = 0
KAM3 100200Z 20012KT 16/00 A3006 RMK A01 T01560002  RH  035%=      5-min Rain = 0
KAM3 100201Z 20011KT 16/00 A3006 RMK A01 T01560002  RH  035%=      5-min Rain = 0
KAM3 100202Z 20012KT 16/00 A3006 RMK A01 T01560002  RH  035%=      5-min Rain = 0
KAM3 100203Z 20012KT 16/00 A3006 RMK A01 T01560002  RH  035%=      5-min Rain = 0
KAM3 100204Z 21012KT 16/00 A3006 RMK A01 T01560002  RH  035%=      5-min Rain = 0
KAM3 100205Z 21012KT 16/00 A3006 RMK A01 T01550002  RH  035%=      5-min Rain = 0
KAM3 100206Z 21012KT 15/00 A3006 RMK A01 T01540002  RH  036%=      5-min Rain = 0
KAM3 100207Z 21011KT 15/00 A3006 RMK A01 T01530002  RH  036%=      5-min Rain = 0
KAM3 100208Z 21011KT 15/00 A3006 RMK A01 T01520002  RH  036%=      5-min Rain = 0
KAM3 100209Z 21011KT 15/00 A3006 RMK A01 T01510003  RH  036%=      5-min Rain = 0
KAM3 100210Z 21010KT 15/00 A3006 RMK A01 T01500002  RH  036%=      5-min Rain = 0
KAM3 100211Z 21011KT 15/00 A3006 RMK A01 T01490002  RH  037%=      5-min Rain = 0
KAM3 100212Z 21011KT 15/00 A3006 RMK A01 T01480002  RH  037%=      5-min Rain = 0
KAM3 100213Z 21010KT 15/00 A3006 RMK A01 T01470002  RH  037%=      5-min Rain = 0
KAM3 100214Z 21010KT 15/00 A3006 RMK A01 T01460001  RH  037%=      5-min Rain = 0
KAM3 100215Z 21010KT 14/00 A3006 RMK A01 T01440001  RH  038%=      5-min Rain = 0
KAM3 100216Z 21010KT 14/00 A3006 RMK A01 T01430001  RH  038%=      5-min Rain = 0
KAM3 100217Z 21009KT 14/00 A3006 RMK A01 T01410001  RH  038%=      5-min Rain = 0
KAM3 100218Z 21010KT 14/00 A3006 RMK A01 T01400002  RH  039%=      5-min Rain = 0
KAM3 100219Z 21010KT 14/00 A3006 RMK A01 T01390002  RH  039%=      5-min Rain = 0
KAM3 100220Z 21010KT 14/00 A3006 RMK A01 T01380002  RH  039%=      5-min Rain = 0
KAM3 100221Z 21010KT 14/00 A3006 RMK A01 T01370002  RH  040%=      5-min Rain = 0
KAM3 100222Z 21010KT 14/00 A3007 RMK A01 T01350002  RH  040%=      5-min Rain = 0
KAM3 100223Z 21010KT 13/00 A3007 RMK A01 T01340002  RH  040%=      5-min Rain = 0
KAM3 100224Z 21009KT 13/00 A3007 RMK A01 T01330002  RH  041%=      5-min Rain = 0
KAM3 100225Z 21009KT 13/00 A3006 RMK A01 T01310002  RH  041%=      5-min Rain = 0
KAM3 100226Z 21009KT 13/00 A3006 RMK A01 T01300002  RH  041%=      5-min Rain = 0
KAM3 100227Z 21010KT 13/00 A3006 RMK A01 T01290002  RH  042%=      5-min Rain = 0
KAM3 100228Z 21010KT 13/00 A3006 RMK A01 T01280002  RH  042%=      5-min Rain = 0
KAM3 100229Z 21009KT 13/00 A3006 RMK A01 T01270002  RH  042%=      5-min Rain = 0
KAM3 100230Z 21010KT 13/00 A3006 RMK A01 T01250002  RH  043%=      5-min Rain = 0
KAM3 100231Z 21010KT 13/00 A3006 RMK A01 T01250003  RH  043%=      5-min Rain = 0
KAM3 100232Z 21010KT 12/00 A3006 RMK A01 T01240003  RH  043%=      5-min Rain = 0
KAM3 100233Z 21010KT 12/00 A3006 RMK A01 T01220002  RH  044%=      5-min Rain = 0
KAM3 100234Z 21010KT 12/00 A3006 RMK A01 T01210002  RH  044%=      5-min Rain = 0
KAM3 100235Z 21010KT 12/00 A3006 RMK A01 T01200002  RH  044%=      5-min Rain = 0
KAM3 100236Z 21009KT 12/00 A3007 RMK A01 T01190002  RH  045%=      5-min Rain = 0
KAM3 100237Z 22009KT 12/00 A3007 RMK A01 T01180002  RH  045%=      5-min Rain = 0
KAM3 100238Z 22009KT 12/00 A3007 RMK A01 T01160002  RH  045%=      5-min Rain = 0
KAM3 100239Z 22009KT 11/00 A3007 RMK A01 T01140001  RH  046%=      5-min Rain = 0
KAM3 100240Z 22009KT 11/00 A3007 RMK A01 T01130001  RH  046%=      5-min Rain = 0
KAM3 100241Z 22009KT 11/00 A3007 RMK A01 T01110001  RH  047%=      5-min Rain = 0
KAM3 100242Z 22009KT 11/00 A3007 RMK A01 T01100001  RH  047%=      5-min Rain = 0
KAM3 100243Z 22009KT 11/00 A3007 RMK A01 T01080001  RH  047%=      5-min Rain = 0
KAM3 100244Z 22009KT 11/00 A3007 RMK A01 T01070001  RH  048%=      5-min Rain = 0
KAM3 100245Z 22009KT 11/00 A3007 RMK A01 T01060001  RH  048%=      5-min Rain = 0
KAM3 100246Z 22009KT 11/00 A3007 RMK A01 T01050001  RH  049%=      5-min Rain = 0
KAM3 100247Z 22009KT 10/00 A3007 RMK A01 T01040001  RH  049%=      5-min Rain = 0
KAM3 100248Z 22009KT 10/00 A3007 RMK A01 T01020001  RH  049%=      5-min Rain = 0
KAM3 100249Z 22010KT 10/00 A3007 RMK A01 T01010001  RH  050%=      5-min Rain = 0
KAM3 100250Z 22010KT 10/00 A3007 RMK A01 T01000001  RH  050%=      5-min Rain = 0
KAM3 100251Z 22010KT 10/00 A3007 RMK A01 T00980000  RH  050%=      5-min Rain = 0
KAM3 100252Z 22010KT 10/00 A3007 RMK A01 T00980000  RH  051%=      5-min Rain = 0
KAM3 100253Z 22010KT 10/00 A3007 RMK A01 T009600-0  RH  051%=      5-min Rain = 0
KAM3 100254Z 22009KT 10/00 A3007 RMK A01 T009500-0  RH  052%=      5-min Rain = 0
KAM3 100255Z 22009KT 09/00 A3007 RMK A01 T009300-0  RH  052%=      5-min Rain = 0
KAM3 100256Z 22010KT 09/00 A3007 RMK A01 T009200-0  RH  052%=      5-min Rain = 0
KAM3 100257Z 22009KT 09/00 A3007 RMK A01 T00920000  RH  053%=      5-min Rain = 0
KAM3 100258Z 22009KT 09/00 A3007 RMK A01 T00920001  RH  053%=      5-min Rain = 0
KAM3 100259Z 22009KT 09/00 A3007 RMK A01 T00910001  RH  053%=      5-min Rain = 0
KAM3 100300Z 22009KT 09/00 A3007 RMK A01 T00910002  RH  053%=      5-min Rain = 0
KAM3 100301Z 22009KT 09/00 A3007 RMK A01 T00920002  RH  054%=      5-min Rain = 0
KAM3 100302Z 22008KT 09/00 A3007 RMK A01 T00910002  RH  054%=      5-min Rain = 0
KAM3 100303Z 22009KT 09/00 A3007 RMK A01 T00910003  RH  054%=      5-min Rain = 0
KAM3 100304Z 22009KT 09/00 A3007 RMK A01 T00920003  RH  054%=      5-min Rain = 0
KAM3 100305Z 22010KT 09/00 A3007 RMK A01 T00920004  RH  054%=      5-min Rain = 0
KAM3 100306Z 22010KT 09/01 A3007 RMK A01 T00940005  RH  054%=      5-min Rain = 0
KAM3 100307Z 22010KT 10/01 A3007 RMK A01 T00950005  RH  053%=      5-min Rain = 0
KAM3 100308Z 22009KT 10/01 A3007 RMK A01 T00960005  RH  053%=      5-min Rain = 0
KAM3 100309Z 22009KT 10/01 A3007 RMK A01 T00960005  RH  053%=      5-min Rain = 0
KAM3 100310Z 22009KT 10/00 A3007 RMK A01 T00950004  RH  053%=      5-min Rain = 0
KAM3 100311Z 22009KT 09/00 A3007 RMK A01 T00940004  RH  053%=      5-min Rain = 0
KAM3 100312Z 22010KT 09/00 A3007 RMK A01 T00930004  RH  054%=      5-min Rain = 0
KAM3 100313Z 22010KT 09/00 A3007 RMK A01 T00930004  RH  054%=      5-min Rain = 0
KAM3 100314Z 22010KT 09/01 A3007 RMK A01 T00920005  RH  054%=      5-min Rain = 0
KAM3 100315Z 22010KT 09/01 A3007 RMK A01 T00930005  RH  054%=      5-min Rain = 0
KAM3 100316Z 22010KT 09/01 A3007 RMK A01 T00920005  RH  054%=      5-min Rain = 0
KAM3 100317Z 21010KT 09/01 A3007 RMK A01 T00920005  RH  054%=      5-min Rain = 0
KAM3 100318Z 21010KT 09/01 A3007 RMK A01 T00930005  RH  054%=      5-min Rain = 0
KAM3 100319Z 22010KT 09/01 A3007 RMK A01 T00930005  RH  054%=      5-min Rain = 0
KAM3 100320Z 22010KT 09/01 A3007 RMK A01 T00940005  RH  054%=      5-min Rain = 0
KAM3 100321Z 22010KT 09/01 A3007 RMK A01 T00940005  RH  054%=      5-min Rain = 0
KAM3 100322Z 22009KT 09/01 A3007 RMK A01 T00940005  RH  054%=      5-min Rain = 0
KAM3 100323Z 22010KT 09/01 A3007 RMK A01 T00940005  RH  054%=      5-min Rain = 0
KAM3 100324Z 22009KT 09/00 A3007 RMK A01 T00930004  RH  054%=      5-min Rain = 0
KAM3 100325Z 22009KT 09/01 A3007 RMK A01 T00930005  RH  054%=      5-min Rain = 0
KAM3 100326Z 22009KT 09/01 A3007 RMK A01 T00920005  RH  054%=      5-min Rain = 0
KAM3 100327Z 22009KT 09/00 A3007 RMK A01 T00910004  RH  055%=      5-min Rain = 0
KAM3 100328Z 22010KT 09/00 A3007 RMK A01 T00900004  RH  055%=      5-min Rain = 0
KAM3 100329Z 22010KT 09/00 A3007 RMK A01 T00900004  RH  055%=      5-min Rain = 0
KAM3 100330Z 22009KT 09/00 A3007 RMK A01 T00890004  RH  055%=      5-min Rain = 0
KAM3 100331Z 22009KT 09/00 A3007 RMK A01 T00880004  RH  056%=      5-min Rain = 0
KAM3 100332Z 22009KT 09/00 A3007 RMK A01 T00860004  RH  056%=      5-min Rain = 0
KAM3 100333Z 22009KT 09/00 A3007 RMK A01 T00850003  RH  056%=      5-min Rain = 0
KAM3 100334Z 22009KT 08/00 A3007 RMK A01 T00840003  RH  057%=      5-min Rain = 0
KAM3 100335Z 22009KT 08/00 A3007 RMK A01 T00820003  RH  057%=      5-min Rain = 0
KAM3 100336Z 22009KT 08/00 A3007 RMK A01 T00810003  RH  058%=      5-min Rain = 0
KAM3 100337Z 22008KT 08/00 A3007 RMK A01 T00800003  RH  058%=      5-min Rain = 0
KAM3 100338Z 22008KT 08/00 A3007 RMK A01 T00780002  RH  058%=      5-min Rain = 0
KAM3 100339Z 23008KT 08/00 A3007 RMK A01 T00770001  RH  059%=      5-min Rain = 0
KAM3 100340Z 23008KT 08/00 A3007 RMK A01 T00760001  RH  059%=      5-min Rain = 0
KAM3 100341Z 23008KT 08/00 A3007 RMK A01 T00750001  RH  059%=      5-min Rain = 0
KAM3 100342Z 23009KT 08/00 A3007 RMK A01 T00750001  RH  059%=      5-min Rain = 0
KAM3 100343Z 24008KT 07/00 A3007 RMK A01 T00740001  RH  060%=      5-min Rain = 0
KAM3 100344Z 24008KT 07/00 A3007 RMK A01 T00730001  RH  060%=      5-min Rain = 0
KAM3 100345Z 24009KT 07/00 A3007 RMK A01 T00730001  RH  060%=      5-min Rain = 0
KAM3 100346Z 24008KT 07/00 A3008 RMK A01 T00730001  RH  060%=      5-min Rain = 0
KAM3 100347Z 24008KT 07/00 A3008 RMK A01 T00730001  RH  060%=      5-min Rain = 0
KAM3 100348Z 24008KT 07/00 A3008 RMK A01 T00740001  RH  060%=      5-min Rain = 0
KAM3 100349Z 24008KT 07/00 A3008 RMK A01 T00740001  RH  060%=      5-min Rain = 0
KAM3 100350Z 24008KT 08/00 A3008 RMK A01 T00760001  RH  059%=      5-min Rain = 0
KAM3 100351Z 24008KT 08/00 A3008 RMK A01 T00760001  RH  059%=      5-min Rain = 0
KAM3 100352Z 24007KT 08/00 A3008 RMK A01 T00760001  RH  059%=      5-min Rain = 0
KAM3 100353Z 24008KT 08/00 A3008 RMK A01 T00770001  RH  059%=      5-min Rain = 0
KAM3 100354Z 24008KT 08/00 A3008 RMK A01 T00780001  RH  058%=      5-min Rain = 0
KAM3 100355Z 24008KT 08/00 A3008 RMK A01 T00790002  RH  058%=      5-min Rain = 0
KAM3 100356Z 23008KT 08/00 A3007 RMK A01 T00810002  RH  058%=      5-min Rain = 0
KAM3 100357Z 23008KT 08/00 A3007 RMK A01 T00820002  RH  057%=      5-min Rain = 0
KAM3 100358Z 23008KT 08/00 A3007 RMK A01 T00830002  RH  057%=      5-min Rain = 0
KAM3 100359Z 23008KT 08/00 A3007 RMK A01 T00840002  RH  056%=      5-min Rain = 0
KAM3 100400Z 23008KT 08/00 A3007 RMK A01 T00840003  RH  056%=      5-min Rain = 0
KAM3 100401Z 23008KT 09/00 A3007 RMK A01 T00850003  RH  056%=      5-min Rain = 0
KAM3 100402Z 22008KT 08/00 A3007 RMK A01 T00840002  RH  056%=      5-min Rain = 0
KAM3 100403Z 22008KT 08/00 A3007 RMK A01 T00840002  RH  056%=      5-min Rain = 0
KAM3 100404Z 22008KT 08/00 A3007 RMK A01 T00830001  RH  056%=      5-min Rain = 0
KAM3 100405Z 22008KT 08/00 A3007 RMK A01 T00830001  RH  056%=      5-min Rain = 0
KAM3 100406Z 22008KT 08/00 A3007 RMK A01 T00820001  RH  057%=      5-min Rain = 0
KAM3 100407Z 22009KT 08/00 A3007 RMK A01 T00810001  RH  057%=      5-min Rain = 0
KAM3 100408Z 22009KT 08/00 A3007 RMK A01 T00800001  RH  057%=      5-min Rain = 0
KAM3 100409Z 22009KT 08/00 A3007 RMK A01 T00790001  RH  057%=      5-min Rain = 0
KAM3 100410Z 22009KT 08/00 A3007 RMK A01 T00800001  RH  058%=      5-min Rain = 0
KAM3 100411Z 22009KT 08/00 A3007 RMK A01 T00800002  RH  058%=      5-min Rain = 0
KAM3 100412Z 22009KT 08/00 A3007 RMK A01 T00810002  RH  057%=      5-min Rain = 0
KAM3 100413Z 22009KT 08/00 A3007 RMK A01 T00820002  RH  057%=      5-min Rain = 0
KAM3 100414Z 22009KT 08/00 A3007 RMK A01 T00830002  RH  057%=      5-min Rain = 0
KAM3 100415Z 22009KT 08/00 A3007 RMK A01 T00840002  RH  056%=      5-min Rain = 0
KAM3 100416Z 22009KT 08/00 A3007 RMK A01 T00840002  RH  056%=      5-min Rain = 0
KAM3 100417Z 22009KT 08/00 A3007 RMK A01 T00830001  RH  056%=      5-min Rain = 0
KAM3 100418Z 21008KT 08/00 A3007 RMK A01 T00820001  RH  057%=      5-min Rain = 0
KAM3 100419Z 21008KT 08/00 A3007 RMK A01 T00800000  RH  057%=      5-min Rain = 0
KAM3 100420Z 22008KT 08/00 A3007 RMK A01 T00790000  RH  057%=      5-min Rain = 0
KAM3 100421Z 21008KT 08/00 A3007 RMK A01 T007800-0  RH  058%=      5-min Rain = 0
KAM3 100422Z 21008KT 08/00 A3007 RMK A01 T007800-0  RH  058%=      5-min Rain = 0
KAM3 100423Z 21008KT 08/00 A3007 RMK A01 T007700-0  RH  058%=      5-min Rain = 0
KAM3 100424Z 21009KT 08/00 A3007 RMK A01 T007700-0  RH  058%=      5-min Rain = 0
KAM3 100425Z 21008KT 08/00 A3007 RMK A01 T007700-0  RH  058%=      5-min Rain = 0
KAM3 100426Z 21008KT 08/00 A3007 RMK A01 T007800-0  RH  058%=      5-min Rain = 0
KAM3 100427Z 21008KT 08/00 A3007 RMK A01 T00780000  RH  058%=      5-min Rain = 0
KAM3 100428Z 21008KT 08/00 A3007 RMK A01 T00790001  RH  057%=      5-min Rain = 0
KAM3 100429Z 21008KT 08/00 A3007 RMK A01 T00810001  RH  057%=      5-min Rain = 0
KAM3 100430Z 21007KT 08/00 A3007 RMK A01 T00830001  RH  056%=      5-min Rain = 0
KAM3 100431Z 21007KT 08/00 A3007 RMK A01 T00840001  RH  056%=      5-min Rain = 0
KAM3 100432Z 21007KT 09/00 A3007 RMK A01 T00850001  RH  055%=      5-min Rain = 0
KAM3 100433Z 21007KT 09/00 A3007 RMK A01 T00860001  RH  055%=      5-min Rain = 0
KAM3 100434Z 21007KT 09/00 A3007 RMK A01 T00870000  RH  055%=      5-min Rain = 0
KAM3 100435Z 21006KT 09/00 A3007 RMK A01 T00870000  RH  054%=      5-min Rain = 0
KAM3 100436Z 21006KT 09/00 A3007 RMK A01 T008700-0  RH  054%=      5-min Rain = 0
KAM3 100437Z 21006KT 09/00 A3007 RMK A01 T008700-0  RH  054%=      5-min Rain = 0
KAM3 100438Z 21006KT 09/M00 A3007 RMK A01 T00871001  RH  054%=      5-min Rain = 0
KAM3 100439Z 21006KT 09/M00 A3007 RMK A01 T00871001  RH  054%=      5-min Rain = 0
KAM3 100440Z 20006KT 09/M00 A3007 RMK A01 T00871001  RH  054%=      5-min Rain = 0
KAM3 100441Z 20006KT 09/00 A3007 RMK A01 T008700-0  RH  054%=      5-min Rain = 0
KAM3 100442Z 20007KT 09/00 A3007 RMK A01 T008700-0  RH  054%=      5-min Rain = 0
KAM3 100443Z 20006KT 09/M00 A3007 RMK A01 T00871001  RH  054%=      5-min Rain = 0
KAM3 100444Z 21006KT 09/00 A3007 RMK A01 T008700-0  RH  054%=      5-min Rain = 0
KAM3 100445Z 20006KT 09/00 A3007 RMK A01 T00880001  RH  054%=      5-min Rain = 0
KAM3 100446Z 20006KT 09/00 A3007 RMK A01 T00890001  RH  054%=      5-min Rain = 0
KAM3 100447Z 20006KT 09/00 A3007 RMK A01 T00890001  RH  054%=      5-min Rain = 0
KAM3 100448Z 19005KT 09/00 A3007 RMK A01 T00890000  RH  054%=      5-min Rain = 0
KAM3 100449Z 19005KT 09/00 A3007 RMK A01 T00890000  RH  054%=      5-min Rain = 0
KAM3 100450Z 19005KT 09/M00 A3007 RMK A01 T00871001  RH  054%=      5-min Rain = 0
KAM3 100451Z 20005KT 09/M00 A3007 RMK A01 T00861001  RH  055%=      5-min Rain = 0
KAM3 100452Z 20005KT 09/00 A3007 RMK A01 T008500-0  RH  055%=      5-min Rain = 0
KAM3 100453Z 20005KT 08/00 A3007 RMK A01 T008400-0  RH  055%=      5-min Rain = 0
KAM3 100454Z 20005KT 08/00 A3007 RMK A01 T008400-0  RH  056%=      5-min Rain = 0
KAM3 100455Z 20005KT 08/00 A3007 RMK A01 T008300-0  RH  056%=      5-min Rain = 0
KAM3 100456Z 20005KT 08/M00 A3007 RMK A01 T00831001  RH  056%=      5-min Rain = 0
KAM3 100457Z 19005KT 08/00 A3007 RMK A01 T008300-0  RH  056%=      5-min Rain = 0
KAM3 100458Z 19005KT 08/M00 A3007 RMK A01 T00831001  RH  055%=      5-min Rain = 0
KAM3 100459Z 19005KT 08/00 A3007 RMK A01 T008300-0  RH  056%=      5-min Rain = 0
KAM3 100500Z 20005KT 08/00 A3007 RMK A01 T008200-0  RH  056%=      5-min Rain = 0
KAM3 100501Z 20006KT 08/M00 A3007 RMK A01 T00821001  RH  056%=      5-min Rain = 0
KAM3 100502Z 19006KT 08/M00 A3007 RMK A01 T00821001  RH  056%=      5-min Rain = 0
KAM3 100503Z 19006KT 08/M00 A3006 RMK A01 T00821001  RH  056%=      5-min Rain = 0
KAM3 100504Z 20006KT 08/M00 A3006 RMK A01 T00821001  RH  056%=      5-min Rain = 0
KAM3 100505Z 19007KT 08/00 A3006 RMK A01 T008300-0  RH  056%=      5-min Rain = 0
KAM3 100506Z 19007KT 08/00 A3006 RMK A01 T008300-0  RH  056%=      5-min Rain = 0
KAM3 100507Z 20007KT 08/00 A3006 RMK A01 T00830000  RH  056%=      5-min Rain = 0
KAM3 100508Z 20007KT 08/00 A3006 RMK A01 T00830000  RH  056%=      5-min Rain = 0
KAM3 100509Z 20007KT 09/00 A3006 RMK A01 T00850000  RH  055%=      5-min Rain = 0
KAM3 100510Z 20007KT 09/00 A3006 RMK A01 T008500-0  RH  055%=      5-min Rain = 0
KAM3 100511Z 20007KT 09/00 A3006 RMK A01 T008600-0  RH  055%=      5-min Rain = 0
KAM3 100512Z 20007KT 09/00 A3006 RMK A01 T00870000  RH  055%=      5-min Rain = 0
KAM3 100513Z 21007KT 09/00 A3006 RMK A01 T00870000  RH  054%=      5-min Rain = 0
KAM3 100514Z 21007KT 09/00 A3006 RMK A01 T00890000  RH  054%=      5-min Rain = 0
KAM3 100515Z 20007KT 09/00 A3006 RMK A01 T00910001  RH  053%=      5-min Rain = 0
KAM3 100516Z 21007KT 09/00 A3006 RMK A01 T00930001  RH  052%=      5-min Rain = 0
KAM3 100517Z 21007KT 10/00 A3006 RMK A01 T00950000  RH  051%=      5-min Rain = 0
KAM3 100518Z 21007KT 10/M00 A3006 RMK A01 T00971001  RH  051%=      5-min Rain = 0
KAM3 100519Z 21006KT 10/00 A3006 RMK A01 T009800-0  RH  050%=      5-min Rain = 0
KAM3 100520Z 21006KT 10/00 A3006 RMK A01 T009800-0  RH  050%=      5-min Rain = 0
KAM3 100521Z 21006KT 10/00 A3006 RMK A01 T009800-0  RH  050%=      5-min Rain = 0
KAM3 100522Z 21007KT 10/M00 A3006 RMK A01 T00981001  RH  050%=      5-min Rain = 0
KAM3 100523Z 21006KT 10/M00 A3006 RMK A01 T00971001  RH  050%=      5-min Rain = 0
KAM3 100524Z 21007KT 10/00 A3006 RMK A01 T009900-0  RH  050%=      5-min Rain = 0
KAM3 100525Z 21007KT 10/00 A3006 RMK A01 T009900-0  RH  050%=      5-min Rain = 0
KAM3 100526Z 21006KT 10/00 A3006 RMK A01 T009900-0  RH  050%=      5-min Rain = 0
KAM3 100527Z 21006KT 10/00 A3006 RMK A01 T00990000  RH  050%=      5-min Rain = 0
KAM3 100528Z 21006KT 10/00 A3006 RMK A01 T009900-0  RH  050%=      5-min Rain = 0
KAM3 100529Z 22006KT 10/M00 A3006 RMK A01 T00991001  RH  050%=      5-min Rain = 0
KAM3 100530Z 22006KT 10/00 A3006 RMK A01 T009900-0  RH  050%=      5-min Rain = 0
KAM3 100531Z 21005KT 10/M00 A3006 RMK A01 T00981001  RH  050%=      5-min Rain = 0
KAM3 100532Z 22005KT 10/M00 A3006 RMK A01 T00981001  RH  050%=      5-min Rain = 0
KAM3 100533Z 22005KT 10/M00 A3006 RMK A01 T00981001  RH  050%=      5-min Rain = 0
KAM3 100534Z 22005KT 10/M00 A3006 RMK A01 T00971001  RH  050%=      5-min Rain = 0
KAM3 100535Z 22005KT 10/M00 A3006 RMK A01 T00971001  RH  050%=      5-min Rain = 0
KAM3 100536Z 22005KT 10/M00 A3006 RMK A01 T00971001  RH  050%=      5-min Rain = 0
KAM3 100537Z 23005KT 10/M00 A3006 RMK A01 T00971002  RH  050%=      5-min Rain = 0
KAM3 100538Z 22005KT 10/M00 A3006 RMK A01 T00981002  RH  050%=      5-min Rain = 0
KAM3 100539Z 23005KT 10/M00 A3006 RMK A01 T00981001  RH  050%=      5-min Rain = 0
KAM3 100540Z 23006KT 10/M00 A3006 RMK A01 T00991001  RH  050%=      5-min Rain = 0
KAM3 100541Z 23005KT 10/M00 A3006 RMK A01 T00981001  RH  050%=      5-min Rain = 0
KAM3 100542Z 23005KT 10/M00 A3005 RMK A01 T00981002  RH  050%=      5-min Rain = 0
KAM3 100543Z 23006KT 10/M00 A3005 RMK A01 T00981002  RH  050%=      5-min Rain = 0
KAM3 100544Z 23006KT 10/M00 A3005 RMK A01 T00991002  RH  050%=      5-min Rain = 0
KAM3 100545Z 23006KT 10/M00 A3005 RMK A01 T00991002  RH  049%=      5-min Rain = 0
KAM3 100546Z 23006KT 10/M00 A3005 RMK A01 T00991002  RH  050%=      5-min Rain = 0
KAM3 100547Z 23006KT 10/M00 A3005 RMK A01 T00991001  RH  050%=      5-min Rain = 0
KAM3 100548Z 23006KT 10/M00 A3005 RMK A01 T00981002  RH  050%=      5-min Rain = 0
KAM3 100549Z 23006KT 10/M00 A3005 RMK A01 T00981002  RH  050%=      5-min Rain = 0
KAM3 100550Z 23007KT 10/M00 A3005 RMK A01 T00971002  RH  050%=      5-min Rain = 0
KAM3 100551Z 23007KT 10/M00 A3005 RMK A01 T00961002  RH  050%=      5-min Rain = 0
KAM3 100552Z 23007KT 10/M00 A3005 RMK A01 T00951002  RH  051%=      5-min Rain = 0
KAM3 100553Z 23007KT 09/M00 A3005 RMK A01 T00941002  RH  051%=      5-min Rain = 0
KAM3 100554Z 23007KT 09/M00 A3005 RMK A01 T00931002  RH  052%=      5-min Rain = 0
KAM3 100555Z 23007KT 09/M00 A3005 RMK A01 T00911002  RH  052%=      5-min Rain = 0
KAM3 100556Z 23007KT 09/M00 A3005 RMK A01 T00901002  RH  053%=      5-min Rain = 0
KAM3 100557Z 23007KT 09/M00 A3005 RMK A01 T00891002  RH  053%=      5-min Rain = 0
KAM3 100558Z 23007KT 09/M00 A3005 RMK A01 T00881003  RH  053%=      5-min Rain = 0
KAM3 100559Z 23007KT 09/M00 A3005 RMK A01 T00871002  RH  054%=      5-min Rain = 0

Page generated in 0.0698 seconds.